FW4143 Weather Reports


Display with metric or nautical units.
time (UTC)temp
F
wind
direction
speed
MPH
gust
MPH
rain 1hr
in
rain 24hr
in
rain mn
in
humidity
%
barometer
mb
20260506132307 76 78 0.0 2.0 0.00 0.00 0.00 1 1009.9
20260506132204 76 75 0.0 2.0 0.00 0.00 0.00 1 1009.9
20260506132104 76 0 0.0 0.0 0.00 0.00 0.00 1 1009.9
20260506132004 76 0 0.0 0.0 0.00 0.00 0.00 1 1009.9
20260506131904 76 0 0.0 0.0 0.00 0.00 0.00 1 1009.8
20260506131804 76 0 0.0 0.0 0.00 0.00 0.00 1 1009.8
20260506131703 76 0 0.0 0.0 0.00 0.00 0.00 1 1009.8
20260506131604 76 0 0.0 0.0 0.00 0.00 0.00 1 1009.8
20260506131504 76 0 0.0 0.0 0.00 0.00 0.00 1 1009.8
20260506131404 76 0 0.0 0.0 0.00 0.00 0.00 1 1009.9
20260506131304 76 0 0.0 0.0 0.00 0.00 0.00 1 1009.8
20260506131204 76 0 0.0 0.0 0.00 0.00 0.00 1 1009.9
20260506131104 76 0 0.0 0.0 0.00 0.00 0.00 1 1009.9
20260506131004 76 62 0.0 1.0 0.00 0.00 0.00 1 1009.9
20260506130904 76 63 0.0 3.0 0.00 0.00 0.00 1 1009.8
20260506130803 76 62 1.0 4.0 0.00 0.00 0.00 1 1009.8
20260506130703 76 63 1.0 4.0 0.00 0.00 0.00 1 1009.7
20260506130604 76 63 1.0 4.0 0.00 0.00 0.00 1 1009.7
20260506130504 76 63 1.0 4.0 0.00 0.00 0.00 1 1009.7
20260506130404 76 63 1.0 4.0 0.00 0.00 0.00 1 1009.7
20260506130303 76 63 1.0 4.0 0.00 0.00 0.00 1 1009.7
20260506130203 76 63 1.0 4.0 0.00 0.00 0.00 1 1009.6
20260506130104 76 63 1.0 4.0 0.00 0.00 0.00 1 1009.6
20260506130004 76 64 2.0 4.0 0.00 0.00 0.00 1 1009.5
20260506125903 76 64 2.0 4.0 0.00 0.00 0.00 1 1009.5
20260506125804 76 64 1.0 4.0 0.00 0.00 0.00 1 1009.5
20260506125704 76 64 1.0 4.0 0.00 0.00 0.00 1 1009.5
20260506125603 76 64 1.0 4.0 0.00 0.00 0.00 1 1009.5
20260506125504 76 64 1.0 4.0 0.00 0.00 0.00 1 1009.5
20260506125425 76 64 1.0 4.0 0.00 0.00 0.00 1 1009.5
20260506125305 76 65 1.0 4.0 0.00 0.00 0.00 1 1009.5
20260506125204 76 65 1.0 4.0 0.00 0.00 0.00 1 1009.5
20260506125104 76 65 1.0 4.0 0.00 0.00 0.00 1 1009.5
20260506125003 76 65 1.0 4.0 0.00 0.00 0.00 1 1009.5
20260506124904 76 65 1.0 2.0 0.00 0.00 0.00 1 1009.6
20260506124825 76 65 1.0 2.0 0.00 0.00 0.00 1 1009.5
20260506124704 76 65 1.0 2.0 0.00 0.00 0.00 1 1009.5
20260506124625 76 65 1.0 4.0 0.00 0.00 0.00 1 1009.5
20260506124504 76 65 1.0 4.0 0.00 0.00 0.00 1 1009.5
20260506124404 76 65 1.0 4.0 0.00 0.00 0.00 1 1009.5
20260506124303 75 66 1.0 4.0 0.00 0.00 0.00 1 1009.5
20260506124203 75 66 1.0 4.0 0.00 0.00 0.00 1 1009.5
20260506124125 75 66 1.0 4.0 0.00 0.00 0.00 1 1009.5
20260506124004 75 66 1.0 4.0 0.00 0.00 0.00 1 1009.5
20260506123904 75 66 1.0 4.0 0.00 0.00 0.00 1 1009.5
20260506123824 75 66 1.0 4.0 0.00 0.00 0.00 1 1009.5
20260506123704 75 66 0.0 4.0 0.00 0.00 0.00 1 1009.5
20260506123604 75 68 0.0 3.0 0.00 0.00 0.00 1 1009.5
20260506123525 75 68 0.0 1.0 0.00 0.00 0.00 1 1009.5
20260506123424 75 0 0.0 0.0 0.00 0.00 0.00 1 1009.5
20260506123304 75 0 0.0 0.0 0.00 0.00 0.00 1 1009.5
20260506123203 75 0 0.0 0.0 0.00 0.00 0.00 1 1009.5
20260506123103 75 0 0.0 0.0 0.00 0.00 0.00 1 1009.5
20260506123004 75 0 0.0 0.0 0.00 0.00 0.00 1 1009.5
20260506122904 75 0 0.0 0.0 0.00 0.00 0.00 1 1009.6
20260506122803 75 0 0.0 0.0 0.00 0.00 0.00 1 1009.6
20260506122725 75 0 0.0 0.0 0.00 0.00 0.00 1 1009.5
20260506122625 75 0 0.0 0.0 0.00 0.00 0.00 1 1009.6
20260506122504 75 68 0.0 3.0 0.00 0.00 0.00 1 1009.5
20260506122403 75 68 0.0 3.0 0.00 0.00 0.00 1 1009.5
20260506122306 75 68 0.0 3.0 0.00 0.00 0.00 1 1009.5
20260506122203 75 68 0.0 3.0 0.00 0.00 0.00 1 1009.5
20260506122104 75 68 0.0 3.0 0.00 0.00 0.00 1 1009.5
20260506122003 75 68 0.0 3.0 0.00 0.00 0.00 1 1009.5
20260506121924 75 68 0.0 3.0 0.00 0.00 0.00 1 1009.5
20260506121803 75 68 0.0 3.0 0.00 0.00 0.00 1 1009.5
20260506121703 75 68 0.0 3.0 0.00 0.00 0.00 1 1009.5
20260506121603 75 68 0.0 3.0 0.00 0.00 0.00 1 1009.5
20260506121525 75 68 0.0 1.0 0.00 0.00 0.00 1 1009.5
20260506121403 75 0 0.0 0.0 0.00 0.00 0.00 1 1009.4
20260506121303 75 0 0.0 0.0 0.00 0.00 0.00 1 1009.4
20260506121204 75 0 0.0 0.0 0.00 0.00 0.00 1 1009.5
20260506121125 75 0 0.0 0.0 0.00 0.00 0.00 1 1009.5
20260506121004 75 0 0.0 0.0 0.00 0.00 0.00 1 1009.4
20260506120903 75 0 0.0 0.0 0.00 0.00 0.00 1 1009.4
20260506120804 75 0 0.0 0.0 0.00 0.00 0.00 1 1009.4
20260506120704 75 0 0.0 0.0 0.00 0.00 0.00 1 1009.4
20260506120603 75 0 0.0 0.0 0.00 0.00 0.00 1 1009.4
20260506120504 75 0 0.0 0.0 0.00 0.00 0.00 1 1009.4
20260506120424 75 0 0.0 0.0 0.00 0.00 0.00 1 1009.4
20260506120303 75 0 0.0 0.0 0.00 0.00 0.00 1 1009.3
20260506120204 75 0 0.0 0.0 0.00 0.00 0.00 1 1009.3
20260506120103 75 0 0.0 0.0 0.00 0.00 0.00 1 1009.3
20260506120004 75 0 0.0 0.0 0.00 0.00 0.00 1 1009.3
20260506115925 75 0 0.0 0.0 0.00 0.00 0.00 1 1009.3
20260506115803 75 0 0.0 0.0 0.00 0.00 0.00 1 1009.3
20260506115725 75 0 0.0 0.0 0.00 0.00 0.00 1 1009.3
20260506115603 75 0 0.0 0.0 0.00 0.00 0.00 1 1009.2
20260506115504 75 0 0.0 0.0 0.00 0.00 0.00 1 1009.3
20260506115404 75 0 0.0 0.0 0.00 0.00 0.00 1 1009.3
20260506115306 75 0 0.0 0.0 0.00 0.00 0.00 1 1009.3
20260506115204 75 0 0.0 0.0 0.00 0.00 0.00 1 1009.3
20260506115103 75 0 0.0 0.0 0.00 0.00 0.00 1 1009.3
20260506115025 75 0 0.0 0.0 0.00 0.00 0.00 1 1009.3
20260506114904 76 0 0.0 0.0 0.00 0.00 0.00 1 1009.3
20260506114803 76 0 0.0 0.0 0.00 0.00 0.00 1 1009.2
20260506114704 76 0 0.0 0.0 0.00 0.00 0.00 1 1009.3
20260506114603 76 0 0.0 0.0 0.00 0.00 0.00 1 1009.3
20260506114503 76 0 0.0 0.0 0.00 0.00 0.00 1 1009.3
20260506114403 76 0 0.0 0.0 0.00 0.00 0.00 1 1009.3
20260506114303 76 0 0.0 0.0 0.00 0.00 0.00 1 1009.3
20260506114225 76 0 0.0 0.0 0.00 0.00 0.00 1 1009.4
20260506114103 76 0 0.0 0.0 0.00 0.00 0.00 1 1009.4
20260506114003 76 0 0.0 0.0 0.00 0.00 0.00 1 1009.4
20260506113904 76 0 0.0 0.0 0.00 0.00 0.00 1 1009.4
20260506113804 76 0 0.0 0.0 0.00 0.00 0.00 1 1009.5
20260506113703 76 0 0.0 0.0 0.00 0.00 0.00 1 1009.4
20260506113604 76 0 0.0 0.0 0.00 0.00 0.00 1 1009.4
20260506113503 76 68 0.0 2.0 0.00 0.00 0.00 1 1009.4
20260506113403 76 68 0.0 4.0 0.00 0.00 0.00 1 1009.4
20260506113304 76 68 0.0 4.0 0.00 0.00 0.00 1 1009.4
20260506113204 76 68 0.0 4.0 0.00 0.00 0.00 1 1009.4
20260506113103 76 68 1.0 4.0 0.00 0.00 0.00 1 1009.4
20260506113003 76 68 1.0 4.0 0.00 0.00 0.00 1 1009.4
20260506112903 76 68 1.0 4.0 0.00 0.00 0.00 1 1009.3
20260506112804 76 68 1.0 4.0 0.00 0.00 0.00 1 1009.3
20260506112703 76 68 1.0 4.0 0.00 0.00 0.00 1 1009.2
20260506112603 76 68 1.0 4.0 0.00 0.00 0.00 1 1009.3
20260506112503 76 68 1.0 4.0 0.00 0.00 0.00 1 1009.3
20260506112404 76 68 1.0 4.0 0.00 0.00 0.00 1 1009.3
20260506112324 76 69 1.0 4.0 0.00 0.00 0.00 1 1009.4
20260506112204 76 69 1.0 4.0 0.00 0.00 0.00 1 1009.3
20260506112103 76 69 1.0 4.0 0.00 0.00 0.00 1 1009.3
20260506112003 76 69 1.0 4.0 0.00 0.00 0.00 1 1009.3
20260506111903 76 69 1.0 3.0 0.00 0.00 0.00 1 1009.3
20260506111804 76 69 1.0 3.0 0.00 0.00 0.00 1 1009.3
20260506111703 76 69 1.0 3.0 0.00 0.00 0.00 1 1009.3
20260506111604 76 69 1.0 3.0 0.00 0.00 0.00 1 1009.3
20260506111504 76 69 1.0 3.0 0.00 0.00 0.00 1 1009.3
20260506111404 76 69 1.0 3.0 0.00 0.00 0.00 1 1009.3
20260506111303 76 69 1.0 3.0 0.00 0.00 0.00 1 1009.3
20260506111225 76 69 1.0 3.0 0.00 0.00 0.00 1 1009.3
20260506111103 76 69 1.0 3.0 0.00 0.00 0.00 1 1009.3
20260506111003 76 69 1.0 3.0 0.00 0.00 0.00 1 1009.3
20260506110903 76 70 1.0 3.0 0.00 0.00 0.00 1 1009.3
20260506110804 76 70 1.0 3.0 0.00 0.00 0.00 1 1009.3
20260506110703 76 70 0.0 2.0 0.00 0.00 0.00 1 1009.3
20260506110603 76 70 0.0 2.0 0.00 0.00 0.00 1 1009.3
20260506110503 76 70 0.0 2.0 0.00 0.00 0.00 1 1009.3
20260506110404 76 70 0.0 2.0 0.00 0.00 0.00 1 1009.3
20260506110303 76 0 0.0 0.0 0.00 0.00 0.00 1 1009.3
20260506110203 76 0 0.0 0.0 0.00 0.00 0.00 1 1009.2
20260506110103 76 0 0.0 0.0 0.00 0.00 0.00 1 1009.3
20260506110004 76 0 0.0 0.0 0.00 0.00 0.00 1 1009.4
20260506105903 76 0 0.0 0.0 0.00 0.00 0.00 1 1009.3
20260506105804 76 0 0.0 0.0 0.00 0.00 0.00 1 1009.3
20260506105703 76 0 0.0 0.0 0.00 0.00 0.00 1 1009.3
20260506105604 76 63 0.0 1.0 0.00 0.00 0.00 1 1009.3
20260506105503 76 64 0.0 2.0 0.00 0.00 0.00 1 1009.3
20260506105403 76 64 0.0 2.0 0.00 0.00 0.00 1 1009.2
20260506105305 76 64 0.0 3.0 0.00 0.00 0.00 1 1009.2
20260506105224 76 64 0.0 3.0 0.00 0.00 0.00 1 1009.2
20260506105104 76 64 0.0 3.0 0.00 0.00 0.00 1 1009.2
20260506105003 76 64 1.0 3.0 0.00 0.00 0.00 1 1009.2
20260506104925 76 64 1.0 3.0 0.00 0.00 0.00 1 1009.2
20260506104824 76 64 1.0 4.0 0.00 0.00 0.00 1 1009.2
20260506104725 76 64 1.0 5.0 0.00 0.00 0.00 1 1009.1
20260506104603 76 64 1.0 5.0 0.00 0.00 0.00 1 1009.1
20260506104504 76 64 1.0 5.0 0.00 0.00 0.00 1 1009.1
20260506104424 76 64 1.0 5.0 0.00 0.00 0.00 1 1009.1
20260506104325 76 64 1.0 5.0 0.00 0.00 0.00 1 1009.1
20260506104225 76 65 1.0 5.0 0.00 0.00 0.00 1 1009.1
20260506104103 76 65 1.0 5.0 0.00 0.00 0.00 1 1009.0
20260506104003 76 65 1.0 5.0 0.00 0.00 0.00 1 1009.0
20260506103904 76 64 0.0 5.0 0.00 0.00 0.00 1 1008.9
20260506103804 76 0 0.0 0.0 0.00 0.00 0.00 1 1009.0
20260506103704 76 0 0.0 0.0 0.00 0.00 0.00 1 1009.0
20260506103604 76 63 0.0 5.0 0.00 0.00 0.00 1 1009.0
20260506103504 76 66 1.0 7.0 0.00 0.00 0.00 1 1009.0
20260506103403 76 64 1.0 7.0 0.00 0.00 0.00 1 1009.0
20260506103325 76 63 1.0 7.0 0.00 0.00 0.00 1 1009.0
20260506103203 76 63 1.0 7.0 0.00 0.00 0.00 1 1009.0
20260506103103 76 63 1.0 7.0 0.00 0.00 0.00 1 1009.0
20260506103003 76 63 1.0 7.0 0.00 0.00 0.00 1 1009.0
20260506102925 76 64 2.0 7.0 0.00 0.00 0.00 1 1009.0
20260506102803 76 66 2.0 7.0 0.00 0.00 0.00 1 1009.1
20260506102703 76 66 2.0 7.0 0.00 0.00 0.00 1 1009.1
20260506102625 76 67 2.0 7.0 0.00 0.00 0.00 1 1009.1
20260506102503 76 67 2.0 6.0 0.00 0.00 0.00 1 1009.1
20260506102403 76 62 2.0 6.0 0.00 0.00 0.00 1 1009.1
20260506102305 76 62 2.0 6.0 0.00 0.00 0.00 1 1009.1
20260506102225 76 61 2.0 6.0 0.00 0.00 0.00 1 1009.1
20260506102124 76 61 2.0 6.0 0.00 0.00 0.00 1 1009.1
20260506102024 76 62 2.0 6.0 0.00 0.00 0.00 1 1009.0
20260506101904 76 62 2.0 6.0 0.00 0.00 0.00 1 1009.0
20260506101803 76 62 2.0 6.0 0.00 0.00 0.00 1 1009.0
20260506101703 76 62 2.0 6.0 0.00 0.00 0.00 1 1009.0
20260506101603 76 63 2.0 6.0 0.00 0.00 0.00 1 1009.0
20260506101503 76 62 2.0 6.0 0.00 0.00 0.00 1 1009.0
20260506101424 76 63 2.0 6.0 0.00 0.00 0.00 1 1009.0
20260506101324 76 67 2.0 6.0 0.00 0.00 0.00 1 1008.9
20260506101204 76 64 2.0 6.0 0.00 0.00 0.00 1 1009.0
20260506101103 76 56 2.0 7.0 0.00 0.00 0.00 1 1008.9
20260506101004 76 48 2.0 7.0 0.00 0.00 0.00 1 1008.9
20260506100903 76 37 2.0 7.0 0.00 0.00 0.00 1 1008.9
20260506100804 76 24 2.0 7.0 0.00 0.00 0.00 1 1008.9
20260506100725 76 13 2.0 7.0 0.00 0.00 0.00 1 1008.9
20260506100603 76 357 2.0 7.0 0.00 0.00 0.00 1 1008.9
20260506100503 76 341 1.0 7.0 0.00 0.00 0.00 1 1008.9
20260506100404 76 341 1.0 7.0 0.00 0.00 0.00 1 1008.9
20260506100303 76 341 1.0 7.0 0.00 0.00 0.00 1 1008.9
20260506100225 76 325 1.0 7.0 0.00 0.00 0.00 1 1008.8
20260506100104 76 323 1.0 4.0 0.00 0.00 0.00 1 1008.8
20260506100004 76 322 1.0 4.0 0.00 0.00 0.00 1 1008.8
20260506095903 76 321 0.0 4.0 0.00 0.00 0.00 1 1008.8
20260506095804 76 319 0.0 4.0 0.00 0.00 0.00 1 1008.8
20260506095724 76 329 0.0 4.0 0.00 0.00 0.00 1 1008.8
20260506095604 76 51 0.0 5.0 0.00 0.00 0.00 1 1008.7
20260506095504 76 44 1.0 8.0 0.00 0.00 0.00 1 1008.7
20260506095403 76 44 1.0 8.0 0.00 0.00 0.00 1 1008.8
20260506095305 76 44 1.0 8.0 0.00 0.00 0.00 1 1008.7
20260506095203 76 44 1.0 8.0 0.00 0.00 0.00 1 1008.7
20260506095103 76 44 1.0 8.0 0.00 0.00 0.00 1 1008.7
20260506095003 76 44 1.0 8.0 0.00 0.00 0.00 1 1008.7
20260506094904 76 44 1.0 8.0 0.00 0.00 0.00 1 1008.7
20260506094803 76 44 1.0 8.0 0.00 0.00 0.00 1 1008.7
20260506094704 76 42 1.0 8.0 0.00 0.00 0.00 1 1008.7
20260506094603 76 41 0.0 8.0 0.00 0.00 0.00 1 1008.6
20260506094503 76 0 0.0 0.0 0.00 0.00 0.00 1 1008.7
20260506094424 76 0 0.0 0.0 0.00 0.00 0.00 1 1008.6
20260506094303 76 65 0.0 3.0 0.00 0.00 0.00 1 1008.6
20260506094203 76 62 1.0 4.0 0.00 0.00 0.00 1 1008.6
20260506094103 76 53 1.0 5.0 0.00 0.00 0.00 1 1008.6
20260506094004 76 52 1.0 5.0 0.00 0.00 0.00 1 1008.6
20260506093904 76 51 1.0 5.0 0.00 0.00 0.00 1 1008.6
20260506093825 76 51 1.0 5.0 0.00 0.00 0.00 1 1008.6
20260506093704 76 51 1.0 5.0 0.00 0.00 0.00 1 1008.6
20260506093604 76 53 2.0 5.0 0.00 0.00 0.00 1 1008.6
20260506093504 76 53 2.0 6.0 0.00 0.00 0.00 1 1008.5
20260506093404 76 53 2.0 6.0 0.00 0.00 0.00 1 1008.5
20260506093304 76 52 2.0 6.0 0.00 0.00 0.00 1 1008.5
20260506093203 76 54 2.0 6.0 0.00 0.00 0.00 1 1008.5
20260506093103 76 57 2.0 6.0 0.00 0.00 0.00 1 1008.5
20260506093004 76 58 2.0 6.0 0.00 0.00 0.00 1 1008.5
20260506092924 76 59 2.0 6.0 0.00 0.00 0.00 1 1008.4
20260506092803 76 61 2.0 6.0 0.00 0.00 0.00 1 1008.5
20260506092724 76 61 2.0 6.0 0.00 0.00 0.00 1 1008.5
20260506092603 76 64 2.0 6.0 0.00 0.00 0.00 1 1008.4
20260506092504 76 67 2.0 5.0 0.00 0.00 0.00 1 1008.5
20260506092403 76 69 2.0 5.0 0.00 0.00 0.00 1 1008.5
20260506092324 76 70 2.0 5.0 0.00 0.00 0.00 1 1008.5
20260506092204 76 71 2.0 5.0 0.00 0.00 0.00 1 1008.4
20260506092104 76 70 2.0 5.0 0.00 0.00 0.00 1 1008.5
20260506092024 76 70 2.0 7.0 0.00 0.00 0.00 1 1008.4
20260506091904 76 70 2.0 7.0 0.00 0.00 0.00 1 1008.4
20260506091804 76 70 2.0 7.0 0.00 0.00 0.00 1 1008.4
20260506091704 76 70 2.0 7.0 0.00 0.00 0.00 1 1008.4
20260506091603 76 69 1.0 7.0 0.00 0.00 0.00 1 1008.4
20260506091503 76 49 2.0 7.0 0.00 0.00 0.00 1 1008.3
20260506091404 76 38 2.0 7.0 0.00 0.00 0.00 1 1008.3
20260506091324 76 34 1.0 7.0 0.00 0.00 0.00 1 1008.3
20260506091204 76 26 1.0 7.0 0.00 0.00 0.00 1 1008.2
20260506091103 76 25 2.0 7.0 0.00 0.00 0.00 1 1008.2
20260506091003 76 32 2.0 9.0 0.00 0.00 0.00 1 1008.2
20260506090903 76 35 2.0 9.0 0.00 0.00 0.00 1 1008.1
20260506090803 76 40 3.0 9.0 0.00 0.00 0.00 1 1008.2
20260506090704 76 41 3.0 9.0 0.00 0.00 0.00 1 1008.2
20260506090603 76 43 3.0 9.0 0.00 0.00 0.00 1 1008.2
20260506090503 76 49 3.0 9.0 0.00 0.00 0.00 1 1008.2
20260506090403 76 53 3.0 9.0 0.00 0.00 0.00 1 1008.2
20260506090303 76 54 4.0 9.0 0.00 0.00 0.00 1 1008.1
20260506090204 76 54 4.0 9.0 0.00 0.00 0.00 1 1008.1
20260506090103 76 56 4.0 9.0 0.00 0.00 0.00 1 1008.2
20260506090024 76 56 4.0 9.0 0.00 0.00 0.00 1 1008.2
20260506085903 76 50 4.0 9.0 0.00 0.00 0.00 1 1008.2
20260506085804 76 49 4.0 9.0 0.00 0.00 0.00 1 1008.1
20260506085703 76 50 4.0 9.0 0.00 0.00 0.00 1 1008.1
20260506085603 76 50 4.0 9.0 0.00 0.00 0.00 1 1008.2
20260506085504 76 48 4.0 9.0 0.00 0.00 0.00 1 1008.1
20260506085403 76 50 4.0 9.0 0.00 0.00 0.00 1 1008.1
20260506085306 76 49 5.0 9.0 0.00 0.00 0.00 1 1008.1
20260506085203 76 49 4.0 9.0 0.00 0.00 0.00 1 1008.1
20260506085104 76 46 4.0 9.0 0.00 0.00 0.00 1 1008.1
20260506085003 76 46 4.0 9.0 0.00 0.00 0.00 1 1008.1
20260506084904 76 52 4.0 9.0 0.00 0.00 0.00 1 1008.0
20260506084803 76 52 4.0 9.0 0.00 0.00 0.00 1 1008.0
20260506084703 76 51 4.0 9.0 0.00 0.00 0.00 1 1008.1
20260506084603 76 50 4.0 9.0 0.00 0.00 0.00 1 1008.1
20260506084503 76 51 4.0 10.0 0.00 0.00 0.00 1 1008.1
20260506084403 76 46 4.0 10.0 0.00 0.00 0.00 1 1008.1
20260506084303 76 46 4.0 10.0 0.00 0.00 0.00 1 1008.1
20260506084203 76 46 4.0 10.0 0.00 0.00 0.00 1 1008.1
20260506084103 76 47 4.0 10.0 0.00 0.00 0.00 1 1008.1
20260506084004 76 46 4.0 14.0 0.00 0.00 0.00 1 1008.1
20260506083903 76 46 4.0 14.0 0.00 0.00 0.00 1 1008.1
20260506083804 76 44 4.0 14.0 0.00 0.00 0.00 1 1008.0
20260506083704 76 45 4.0 14.0 0.00 0.00 0.00 1 1008.0
20260506083603 76 43 4.0 14.0 0.00 0.00 0.00 1 1008.1
20260506083503 76 44 4.0 14.0 0.00 0.00 0.00 1 1008.1
20260506083403 76 48 4.0 14.0 0.00 0.00 0.00 1 1008.1
20260506083304 76 49 4.0 14.0 0.00 0.00 0.00 1 1008.1
20260506083203 76 49 4.0 14.0 0.00 0.00 0.00 1 1008.1
20260506083124 76 48 4.0 14.0 0.00 0.00 0.00 1 1008.1
20260506083003 76 49 4.0 10.0 0.00 0.00 0.00 1 1008.1
20260506082903 76 49 4.0 10.0 0.00 0.00 0.00 1 1008.0
20260506082803 76 50 4.0 10.0 0.00 0.00 0.00 1 1008.1
20260506082704 76 50 4.0 10.0 0.00 0.00 0.00 1 1008.1
20260506082603 76 52 4.0 10.0 0.00 0.00 0.00 1 1008.1
20260506082503 76 53 4.0 10.0 0.00 0.00 0.00 1 1008.0
20260506082403 76 54 4.0 9.0 0.00 0.00 0.00 1 1008.0
20260506082305 76 52 4.0 9.0 0.00 0.00 0.00 1 1008.0
20260506082203 76 50 4.0 9.0 0.00 0.00 0.00 1 1008.0
20260506082103 76 49 4.0 9.0 0.00 0.00 0.00 1 1008.0
20260506082004 76 48 4.0 9.0 0.00 0.00 0.00 1 1008.0
20260506081903 76 47 4.0 9.0 0.00 0.00 0.00 1 1008.0
20260506081803 76 45 4.0 9.0 0.00 0.00 0.00 1 1008.0
20260506081703 76 43 4.0 9.0 0.00 0.00 0.00 1 1008.0
20260506081604 76 42 4.0 9.0 0.00 0.00 0.00 1 1008.0
20260506081503 76 41 4.0 9.0 0.00 0.00 0.00 1 1008.1
20260506081403 76 39 4.0 9.0 0.00 0.00 0.00 1 1008.1
20260506081324 76 40 4.0 8.0 0.00 0.00 0.00 1 1008.1
20260506081224 76 40 4.0 8.0 0.00 0.00 0.00 1 1008.1
20260506081104 76 44 4.0 9.0 0.00 0.00 0.00 1 1008.1
20260506081003 76 42 4.0 9.0 0.00 0.00 0.00 1 1008.1
20260506080924 76 41 4.0 9.0 0.00 0.00 0.00 1 1008.0
20260506080804 76 42 4.0 9.0 0.00 0.00 0.00 1 1008.0
20260506080703 76 44 4.0 9.0 0.00 0.00 0.00 1 1008.0
20260506080604 76 44 4.0 9.0 0.00 0.00 0.00 1 1008.0
20260506080503 76 46 4.0 9.0 0.00 0.00 0.00 1 1008.0
20260506080403 76 47 4.0 9.0 0.00 0.00 0.00 1 1008.0
20260506080303 76 45 4.0 11.0 0.00 0.00 0.00 1 1008.1
20260506080225 76 45 4.0 11.0 0.00 0.00 0.00 1 1008.1
20260506080104 76 43 4.0 11.0 0.00 0.00 0.00 1 1008.1
20260506073504 76 46 6.0 12.0 0.00 0.00 0.00 1 1008.1
20260506073403 76 45 6.0 11.0 0.00 0.00 0.00 1 1008.2
20260506073303 76 47 6.0 11.0 0.00 0.00 0.00 1 1008.2
20260506073203 76 44 6.0 11.0 0.00 0.00 0.00 1 1008.2
20260506073124 76 44 6.0 14.0 0.00 0.00 0.00 1 1008.2
20260506073004 76 43 6.0 14.0 0.00 0.00 0.00 1 1008.2
20260506072904 76 38 6.0 14.0 0.00 0.00 0.00 1 1008.2
20260506072803 76 38 7.0 14.0 0.00 0.00 0.00 1 1008.1
20260506072724 76 38 7.0 14.0 0.00 0.00 0.00 1 1008.2
20260506072624 76 37 7.0 14.0 0.00 0.00 0.00 1 1008.2
20260506072504 76 35 6.0 14.0 0.00 0.00 0.00 1 1008.2
20260506072404 76 35 6.0 14.0 0.00 0.00 0.00 1 1008.2
20260506072305 76 33 6.0 14.0 0.00 0.00 0.00 1 1008.3
20260506072204 76 35 6.0 14.0 0.00 0.00 0.00 1 1008.3
20260506072103 76 32 6.0 14.0 0.00 0.00 0.00 1 1008.3
20260506072003 76 29 7.0 15.0 0.00 0.00 0.00 1 1008.2
20260506071904 76 32 6.0 15.0 0.00 0.00 0.00 1 1008.2
20260506071824 76 31 6.0 15.0 0.00 0.00 0.00 1 1008.2
20260506071703 76 28 6.0 15.0 0.00 0.00 0.00 1 1008.2
20260506071625 76 27 7.0 15.0 0.00 0.00 0.00 1 1008.3
20260506071504 76 28 7.0 15.0 0.00 0.00 0.00 1 1008.3
20260506071404 76 28 7.0 15.0 0.00 0.00 0.00 1 1008.3
20260506071303 76 29 7.0 15.0 0.00 0.00 0.00 1 1008.3
20260506071203 76 30 7.0 15.0 0.00 0.00 0.00 1 1008.3
20260506071124 76 31 7.0 15.0 0.00 0.00 0.00 1 1008.3
20260506071004 76 32 6.0 13.0 0.00 0.00 0.00 1 1008.4
20260506070903 76 31 6.0 13.0 0.00 0.00 0.00 1 1008.4
20260506070824 76 32 5.0 13.0 0.00 0.00 0.00 1 1008.4
20260506070703 76 32 5.0 13.0 0.00 0.00 0.00 1 1008.4
20260506070603 76 38 5.0 13.0 0.00 0.00 0.00 1 1008.4
20260506070524 76 37 5.0 14.0 0.00 0.00 0.00 1 1008.4
20260506070403 76 37 4.0 14.0 0.00 0.00 0.00 1 1008.4
20260506070304 76 36 5.0 14.0 0.00 0.00 0.00 1 1008.4
20260506070204 76 36 4.0 14.0 0.00 0.00 0.00 1 1008.4
20260506070103 76 34 4.0 14.0 0.00 0.00 0.00 1 1008.4
20260506062503 77 32 5.0 12.0 0.00 0.00 0.00 1 1008.5
20260506062403 77 33 5.0 12.0 0.00 0.00 0.00 1 1008.4
20260506062305 77 38 5.0 12.0 0.00 0.00 0.00 1 1008.4
20260506062203 77 35 5.0 12.0 0.00 0.00 0.00 1 1008.4
20260506062103 77 38 5.0 11.0 0.00 0.00 0.00 1 1008.3
20260506062003 77 36 5.0 11.0 0.00 0.00 0.00 1 1008.3
20260506061903 77 37 5.0 11.0 0.00 0.00 0.00 1 1008.3
20260506061824 77 39 5.0 11.0 0.00 0.00 0.00 1 1008.2
20260506061704 77 42 5.0 13.0 0.00 0.00 0.00 1 1008.2
20260506061603 77 38 6.0 13.0 0.00 0.00 0.00 1 1008.2
20260506061503 77 41 6.0 13.0 0.00 0.00 0.00 1 1008.2
20260506061403 77 38 5.0 13.0 0.00 0.00 0.00 1 1008.2
20260506061303 77 36 5.0 13.0 0.00 0.00 0.00 1 1008.3
20260506061203 77 33 5.0 13.0 0.00 0.00 0.00 1 1008.3
20260506061103 77 27 4.0 13.0 0.00 0.00 0.00 1 1008.3
20260506061003 77 22 4.0 13.0 0.00 0.00 0.00 1 1008.3
20260506060903 77 15 4.0 13.0 0.00 0.00 0.00 1 1008.3
20260506060803 77 5 4.0 13.0 0.00 0.00 0.00 1 1008.4
20260506060724 77 4 4.0 13.0 0.00 0.00 0.00 1 1008.3
20260506060603 77 7 3.0 10.0 0.00 0.00 0.00 1 1008.4
20260506060504 77 358 3.0 11.0 0.00 0.00 0.00 1 1008.4
20260506060403 77 3 4.0 11.0 0.00 0.00 0.00 1 1008.4
20260506060303 77 10 4.0 11.0 0.00 0.00 0.00 1 1008.4
20260506060203 77 16 4.0 12.0 0.00 0.00 0.00 1 1008.5
20260506051404 77 34 4.0 11.0 0.00 0.00 0.00 1 1008.4
20260506051324 77 34 4.0 11.0 0.00 0.00 0.00 1 1008.4
20260506051203 77 35 5.0 11.0 0.00 0.00 0.00 1 1008.4
20260506051103 77 32 4.0 11.0 0.00 0.00 0.00 1 1008.4
20260506051003 77 38 4.0 10.0 0.00 0.00 0.00 1 1008.5
20260506050903 77 40 4.0 10.0 0.00 0.00 0.00 1 1008.4
20260506050824 77 43 4.0 10.0 0.00 0.00 0.00 1 1008.5
20260506050704 77 41 4.0 10.0 0.00 0.00 0.00 1 1008.5
20260506050605 77 34 4.0 10.0 0.00 0.00 0.00 1 1008.5
20260506050503 77 26 4.0 10.0 0.00 0.00 0.00 1 1008.6
20260506050404 77 23 4.0 10.0 0.00 0.00 0.00 1 1008.5
20260506050304 77 20 4.0 10.0 0.00 0.00 0.00 1 1008.6
20260506050203 77 18 3.0 10.0 0.00 0.00 0.00 1 1008.6
20260506050103 77 18 3.0 10.0 0.00 0.00 0.00 1 1008.6
20260506045104 77 2 4.0 10.0 0.00 0.00 0.00 1 1008.5
20260506045024 77 356 4.0 10.0 0.00 0.00 0.00 1 1008.5
20260506044903 77 351 3.0 10.0 0.00 0.00 0.00 1 1008.5
20260506044803 77 346 3.0 10.0 0.00 0.00 0.00 1 1008.5
20260506044703 77 347 3.0 10.0 0.00 0.00 0.00 1 1008.4
20260506044603 77 354 2.0 10.0 0.00 0.00 0.00 1 1008.5
20260506044504 77 348 3.0 10.0 0.00 0.00 0.00 1 1008.5
20260506044404 77 341 3.0 10.0 0.00 0.00 0.00 1 1008.5
20260506044303 77 341 3.0 10.0 0.00 0.00 0.00 1 1008.5
20260506044203 77 350 3.0 10.0 0.00 0.00 0.00 1 1008.5
20260506044103 77 360 3.0 7.0 0.00 0.00 0.00 1 1008.6
20260506044003 77 6 2.0 7.0 0.00 0.00 0.00 1 1008.6
20260506043924 77 13 3.0 7.0 0.00 0.00 0.00 1 1008.6
20260506043803 77 22 3.0 7.0 0.00 0.00 0.00 1 1008.6
20260506043703 77 10 3.0 7.0 0.00 0.00 0.00 1 1008.6
20260506043603 77 4 3.0 7.0 0.00 0.00 0.00 1 1008.6
20260506043524 77 9 3.0 7.0 0.00 0.00 0.00 1 1008.6
20260506043404 77 31 3.0 7.0 0.00 0.00 0.00 1 1008.6
20260506043303 77 35 3.0 7.0 0.00 0.00 0.00 1 1008.6
20260506043203 77 39 3.0 7.0 0.00 0.00 0.00 1 1008.6
20260506043103 77 37 3.0 7.0 0.00 0.00 0.00 1 1008.6
20260506043003 77 37 3.0 7.0 0.00 0.00 0.00 1 1008.5
20260506042903 77 34 3.0 7.0 0.00 0.00 0.00 1 1008.5
20260506042803 77 39 3.0 6.0 0.00 0.00 0.00 1 1008.5
20260506042703 77 49 3.0 6.0 0.00 0.00 0.00 1 1008.4
20260506042604 77 53 2.0 6.0 0.00 0.00 0.00 1 1008.4
20260506042503 77 54 2.0 6.0 0.00 0.00 0.00 1 1008.4
20260506042403 77 52 2.0 6.0 0.00 0.00 0.00 1 1008.4
20260506042305 77 54 2.0 6.0 0.00 0.00 0.00 1 1008.4
20260506042203 77 52 1.0 6.0 0.00 0.00 0.00 1 1008.4
20260506042103 77 50 1.0 6.0 0.00 0.00 0.00 1 1008.4
20260506042024 77 43 2.0 6.0 0.00 0.00 0.00 1 1008.4
20260506041903 77 37 2.0 8.0 0.00 0.00 0.00 1 1008.4
20260506041824 77 39 2.0 8.0 0.00 0.00 0.00 1 1008.4
20260506041703 77 28 2.0 8.0 0.00 0.00 0.00 1 1008.4
20260506041603 77 31 3.0 8.0 0.00 0.00 0.00 1 1008.4
20260506041504 77 36 3.0 8.0 0.00 0.00 0.00 1 1008.4
20260506041403 77 31 3.0 11.0 0.00 0.00 0.00 1 1008.4
20260506041303 77 31 3.0 11.0 0.00 0.00 0.00 1 1008.3
20260506041203 77 32 4.0 11.0 0.00 0.00 0.00 1 1008.4
20260506041104 77 28 4.0 11.0 0.00 0.00 0.00 1 1008.3
20260506041003 77 29 4.0 11.0 0.00 0.00 0.00 1 1008.3
20260506040903 77 28 4.0 11.0 0.00 0.00 0.00 1 1008.3
20260506040804 77 31 4.0 11.0 0.00 0.00 0.00 1 1008.3
20260506040703 77 38 4.0 11.0 0.00 0.00 0.00 1 1008.3
20260506040603 77 38 4.0 11.0 0.00 0.00 0.00 1 1008.3
20260506040503 77 30 4.0 11.0 0.00 0.00 0.00 1 1008.3
20260506040404 77 32 4.0 9.0 0.00 0.00 0.00 1 1008.2
20260506040303 77 28 4.0 9.0 0.00 0.00 0.00 1 1008.2
20260506040204 78 19 4.0 10.0 0.00 0.00 0.00 1 1008.2
20260506040104 78 16 4.0 10.0 0.00 0.00 0.00 1 1008.2
20260506040024 78 18 4.0 10.0 0.00 0.00 0.00 1 1008.2
20260506035903 78 20 4.0 10.0 0.00 0.00 0.00 1 1008.1
20260506035824 78 19 4.0 10.0 0.00 0.00 0.00 1 1008.0
20260506035724 78 18 4.0 10.0 0.00 0.00 0.00 1 1008.0
20260506035603 78 16 4.0 10.0 0.00 0.00 0.00 1 1008.0
20260506035525 78 17 4.0 10.0 0.00 0.00 0.00 1 1008.0
20260506035424 78 19 4.0 10.0 0.00 0.00 0.00 1 1008.0
20260506035306 78 19 3.0 10.0 0.00 0.00 0.00 1 1007.9
20260506035203 78 28 3.0 10.0 0.00 0.00 0.00 1 1007.9
20260506035104 78 37 2.0 8.0 0.00 0.00 0.00 1 1008.0
20260506035003 78 40 2.0 8.0 0.00 0.00 0.00 1 1007.9
20260506034904 78 34 2.0 8.0 0.00 0.00 0.00 1 1008.0
20260506034803 78 31 2.0 8.0 0.00 0.00 0.00 1 1008.0
20260506034724 78 24 2.0 8.0 0.00 0.00 0.00 1 1008.1
20260506034603 78 17 2.0 8.0 0.00 0.00 0.00 1 1008.0
20260506034503 78 23 2.0 9.0 0.00 0.00 0.00 1 1008.0
20260506034403 78 12 2.0 9.0 0.00 0.00 0.00 1 1008.0
20260506034303 78 12 2.0 9.0 0.00 0.00 0.00 1 1008.0
20260506034203 78 12 2.0 9.0 0.00 0.00 0.00 1 1008.0
20260506034103 78 7 2.0 9.0 0.00 0.00 0.00 1 1008.0
20260506034003 78 358 3.0 9.0 0.00 0.00 0.00 1 1008.0
20260506033903 78 4 3.0 9.0 0.00 0.00 0.00 1 1007.9
20260506033803 78 359 2.0 9.0 0.00 0.00 0.00 1 1007.9
20260506033704 78 360 2.0 9.0 0.00 0.00 0.00 1 1007.9
20260506033603 78 352 2.0 9.0 0.00 0.00 0.00 1 1007.8
20260506033524 78 343 1.0 9.0 0.00 0.00 0.00 1 1007.8
20260506033403 78 342 1.0 8.0 0.00 0.00 0.00 1 1007.8
20260506033303 78 342 1.0 8.0 0.00 0.00 0.00 1 1007.8
20260506033224 78 342 1.0 8.0 0.00 0.00 0.00 1 1007.8
20260506033103 78 330 1.0 8.0 0.00 0.00 0.00 1 1007.8
20260506033004 78 317 1.0 8.0 0.00 0.00 0.00 1 1007.8
20260506032903 78 290 1.0 7.0 0.00 0.00 0.00 1 1007.8
20260506032803 78 292 1.0 7.0 0.00 0.00 0.00 1 1007.8
20260506032703 78 304 1.0 7.0 0.00 0.00 0.00 1 1007.8
20260506032603 78 317 2.0 7.0 0.00 0.00 0.00 1 1007.8
20260506032503 78 317 2.0 7.0 0.00 0.00 0.00 1 1007.8
20260506032403 78 333 3.0 7.0 0.00 0.00 0.00 1 1007.8
20260506032324 78 334 3.0 7.0 0.00 0.00 0.00 1 1007.8
20260506032203 78 342 3.0 7.0 0.00 0.00 0.00 1 1007.8
20260506032124 78 346 2.0 7.0 0.00 0.00 0.00 1 1007.7
20260506032003 78 6 3.0 7.0 0.00 0.00 0.00 1 1007.7
20260506031904 78 16 3.0 7.0 0.00 0.00 0.00 1 1007.7
20260506031824 78 18 3.0 8.0 0.00 0.00 0.00 1 1007.6
20260506031703 78 13 3.0 9.0 0.00 0.00 0.00 1 1007.5
20260506031603 78 15 3.0 9.0 0.00 0.00 0.00 1 1007.5
20260506031504 78 26 3.0 9.0 0.00 0.00 0.00 1 1007.6
20260506031403 78 27 3.0 9.0 0.00 0.00 0.00 1 1007.6
20260506031303 78 33 3.0 9.0 0.00 0.00 0.00 1 1007.5
20260506031203 78 30 3.0 9.0 0.00 0.00 0.00 1 1007.5
20260506031124 78 25 4.0 9.0 0.00 0.00 0.00 1 1007.6
20260506031003 78 24 4.0 9.0 0.00 0.00 0.00 1 1007.6
20260506030903 78 25 4.0 9.0 0.00 0.00 0.00 1 1007.6
20260506030805 78 31 3.0 9.0 0.00 0.00 0.00 1 1007.6
20260506030703 78 35 3.0 9.0 0.00 0.00 0.00 1 1007.6
20260506030604 78 27 4.0 9.0 0.00 0.00 0.00 1 1007.6
20260506030503 78 11 4.0 9.0 0.00 0.00 0.00 1 1007.6
20260506030403 78 360 3.0 9.0 0.00 0.00 0.00 1 1007.6
20260506030324 78 351 4.0 9.0 0.00 0.00 0.00 1 1007.6
20260506030203 78 344 4.0 9.0 0.00 0.00 0.00 1 1007.5
20260506030103 78 351 4.0 9.0 0.00 0.00 0.00 1 1007.5
20260506030003 78 342 4.0 9.0 0.00 0.00 0.00 1 1007.5
20260506025903 78 339 4.0 10.0 0.00 0.00 0.00 1 1007.5
20260506025824 78 334 4.0 10.0 0.00 0.00 0.00 1 1007.5
20260506025703 78 329 4.0 10.0 0.00 0.00 0.00 1 1007.5
20260506025603 78 331 4.0 10.0 0.00 0.00 0.00 1 1007.5
20260506025525 78 335 4.0 10.0 0.00 0.00 0.00 1 1007.4
20260506025403 78 345 4.0 10.0 0.00 0.00 0.00 1 1007.4
20260506025324 78 348 4.0 10.0 0.00 0.00 0.00 1 1007.4
20260506025224 78 351 4.0 10.0 0.00 0.00 0.00 1 1007.3
20260506025103 79 353 4.0 10.0 0.00 0.00 0.00 1 1007.3
20260506025003 79 357 4.0 10.0 0.00 0.00 0.00 1 1007.2
20260506024903 79 360 5.0 9.0 0.00 0.00 0.00 1 1007.2
20260506024824 79 358 5.0 12.0 0.00 0.00 0.00 1 1007.2
20260506024703 79 356 5.0 12.0 0.00 0.00 0.00 1 1007.3
20260506024603 79 351 5.0 12.0 0.00 0.00 0.00 1 1007.2
20260506024503 79 344 5.0 12.0 0.00 0.00 0.00 1 1007.2
20260506024403 79 341 4.0 12.0 0.00 0.00 0.00 1 1007.1
20260506024303 79 349 4.0 12.0 0.00 0.00 0.00 1 1007.2
20260506024224 79 349 4.0 12.0 0.00 0.00 0.00 1 1007.1
20260506024103 79 352 4.0 12.0 0.00 0.00 0.00 1 1007.1
20260506024003 79 356 4.0 12.0 0.00 0.00 0.00 1 1007.0
20260506023903 79 350 4.0 12.0 0.00 0.00 0.00 1 1007.0
20260506023803 79 355 3.0 9.0 0.00 0.00 0.00 1 1007.0
20260506023704 79 358 3.0 8.0 0.00 0.00 0.00 1 1007.0
20260506023603 79 358 3.0 7.0 0.00 0.00 0.00 1 1007.0
20260506023503 79 2 3.0 7.0 0.00 0.00 0.00 1 1006.9
20260506023403 79 359 3.0 7.0 0.00 0.00 0.00 1 1006.9
20260506023303 79 352 3.0 7.0 0.00 0.00 0.00 1 1006.9
20260506023203 79 349 3.0 7.0 0.00 0.00 0.00 1 1006.9
20260506023103 79 357 3.0 7.0 0.00 0.00 0.00 1 1006.8
20260506023003 79 345 3.0 8.0 0.00 0.00 0.00 1 1006.8
20260506022903 79 350 3.0 8.0 0.00 0.00 0.00 1 1006.8
20260506022824 79 344 3.0 8.0 0.00 0.00 0.00 1 1006.8
20260506022703 79 341 3.0 8.0 0.00 0.00 0.00 1 1006.8
20260506022603 79 345 3.0 8.0 0.00 0.00 0.00 1 1006.7
20260506022503 79 352 3.0 8.0 0.00 0.00 0.00 1 1006.7
20260506022403 79 346 3.0 8.0 0.00 0.00 0.00 1 1006.7
20260506022305 79 339 4.0 9.0 0.00 0.00 0.00 1 1006.7
20260506022203 79 334 4.0 11.0 0.00 0.00 0.00 1 1006.7
20260506022103 79 327 4.0 11.0 0.00 0.00 0.00 1 1006.6
20260506022003 79 325 4.0 11.0 0.00 0.00 0.00 1 1006.6
20260506021903 79 321 4.0 11.0 0.00 0.00 0.00 1 1006.6
20260506021803 79 322 4.0 11.0 0.00 0.00 0.00 1 1006.6
20260506021704 79 322 4.0 11.0 0.00 0.00 0.00 1 1006.6
20260506021625 79 320 4.0 11.0 0.00 0.00 0.00 1 1006.5
20260506021503 79 314 4.0 11.0 0.00 0.00 0.00 1 1006.5
20260506021403 79 310 4.0 11.0 0.00 0.00 0.00 1 1006.5
20260506021303 79 306 4.0 11.0 0.00 0.00 0.00 1 1006.5
20260506021203 79 301 3.0 8.0 0.00 0.00 0.00 1 1006.4
20260506021103 79 296 3.0 7.0 0.00 0.00 0.00 1 1006.4
20260506021024 79 295 3.0 7.0 0.00 0.00 0.00 1 1006.4
20260506020903 79 289 3.0 6.0 0.00 0.00 0.00 1 1006.3
20260506020803 80 287 3.0 6.0 0.00 0.00 0.00 2 1006.4
20260506020724 80 285 3.0 6.0 0.00 0.00 0.00 2 1006.4
20260506020603 80 282 3.0 5.0 0.00 0.00 0.00 5 1006.4
20260506020524 80 280 2.0 5.0 0.00 0.00 0.00 7 1006.4
20260506020403 80 278 2.0 5.0 0.00 0.00 0.00 9 1006.3
20260506020324 80 278 2.0 7.0 0.00 0.00 0.00 10 1006.3
20260506020224 80 282 2.0 7.0 0.00 0.00 0.00 11 1006.3
20260506020103 80 285 3.0 7.0 0.00 0.00 0.00 13 1006.3
20260506020003 80 285 3.0 7.0 0.00 0.00 0.00 14 1006.4
20260506015924 80 286 3.0 7.0 0.00 0.00 0.00 15 1006.4
20260506015803 80 289 3.0 7.0 0.00 0.00 0.00 16 1006.4
20260506015703 80 293 3.0 7.0 0.00 0.00 0.00 16 1006.4
20260506015603 80 296 3.0 7.0 0.00 0.00 0.00 17 1006.4
20260506015503 80 300 3.0 7.0 0.00 0.00 0.00 18 1006.4
20260506015403 80 301 3.0 7.0 0.00 0.00 0.00 19 1006.4
20260506015305 80 304 3.0 6.0 0.00 0.00 0.00 19 1006.3
20260506015203 81 309 3.0 6.0 0.00 0.00 0.00 20 1006.3
20260506015103 81 317 3.0 6.0 0.00 0.00 0.00 21 1006.3
20260506015003 81 318 3.0 7.0 0.00 0.00 0.00 22 1006.2
20260506014903 81 323 3.0 7.0 0.00 0.00 0.00 22 1006.2
20260506014803 81 323 3.0 7.0 0.00 0.00 0.00 23 1006.2
20260506014703 81 327 3.0 7.0 0.00 0.00 0.00 23 1006.2
20260506014603 81 327 3.0 7.0 0.00 0.00 0.00 24 1006.2
20260506014503 81 329 3.0 7.0 0.00 0.00 0.00 24 1006.2
20260506014403 81 339 3.0 7.0 0.00 0.00 0.00 25 1006.2
20260506014303 81 350 3.0 7.0 0.00 0.00 0.00 25 1006.2
20260506014203 81 340 3.0 7.0 0.00 0.00 0.00 25 1006.2
20260506014103 81 343 4.0 7.0 0.00 0.00 0.00 26 1006.2
20260506014003 81 354 3.0 7.0 0.00 0.00 0.00 26 1006.2
20260506013903 81 5 3.0 7.0 0.00 0.00 0.00 26 1006.2
20260506013803 81 21 3.0 7.0 0.00 0.00 0.00 26 1006.2
20260506013703 81 31 3.0 7.0 0.00 0.00 0.00 27 1006.3
20260506013603 81 40 3.0 7.0 0.00 0.00 0.00 27 1006.3
20260506013504 81 49 3.0 7.0 0.00 0.00 0.00 27 1006.3
20260506013424 81 49 3.0 7.0 0.00 0.00 0.00 28 1006.3
20260506013303 81 50 3.0 7.0 0.00 0.00 0.00 28 1006.3
20260506013224 81 55 3.0 7.0 0.00 0.00 0.00 28 1006.3
20260506013103 81 51 2.0 7.0 0.00 0.00 0.00 29 1006.3
20260506013024 81 50 2.0 5.0 0.00 0.00 0.00 29 1006.3
20260506012903 81 32 2.0 5.0 0.00 0.00 0.00 29 1006.3
20260506012824 81 21 2.0 5.0 0.00 0.00 0.00 30 1006.3
20260506012703 81 357 2.0 5.0 0.00 0.00 0.00 30 1006.3
20260506012624 81 343 2.0 5.0 0.00 0.00 0.00 30 1006.3
20260506012503 81 326 2.0 5.0 0.00 0.00 0.00 31 1006.3
20260506012424 81 326 2.0 5.0 0.00 0.00 0.00 31 1006.2
20260506012307 81 323 2.0 5.0 0.00 0.00 0.00 32 1006.3
20260506012203 81 324 2.0 5.0 0.00 0.00 0.00 32 1006.3
20260506012103 81 329 2.0 5.0 0.00 0.00 0.00 32 1006.3
20260506012024 82 343 2.0 5.0 0.00 0.00 0.00 32 1006.3
20260506011924 82 359 2.0 5.0 0.00 0.00 0.00 33 1006.3
20260506011803 82 26 2.0 5.0 0.00 0.00 0.00 33 1006.3
20260506011703 82 38 2.0 5.0 0.00 0.00 0.00 34 1006.3
20260506011603 82 48 1.0 5.0 0.00 0.00 0.00 34 1006.3
20260506011503 82 53 1.0 4.0 0.00 0.00 0.00 35 1006.3
20260506011403 82 53 1.0 4.0 0.00 0.00 0.00 35 1006.3
20260506011303 82 53 1.0 4.0 0.00 0.00 0.00 35 1006.3
20260506011203 82 54 1.0 4.0 0.00 0.00 0.00 35 1006.3
20260506011103 82 54 1.0 4.0 0.00 0.00 0.00 35 1006.2
20260506011003 82 54 1.0 5.0 0.00 0.00 0.00 35 1006.2
20260506010924 82 54 2.0 5.0 0.00 0.00 0.00 35 1006.3
20260506010824 82 54 2.0 5.0 0.00 0.00 0.00 36 1006.3
20260506010703 82 54 2.0 5.0 0.00 0.00 0.00 36 1006.3
20260506010603 82 54 2.0 5.0 0.00 0.00 0.00 36 1006.2
20260506010503 82 54 2.0 5.0 0.00 0.00 0.00 36 1006.3
20260506010424 82 55 2.0 5.0 0.00 0.00 0.00 37 1006.2
20260506010324 82 55 2.0 5.0 0.00 0.00 0.00 37 1006.2
20260506010203 82 55 2.0 5.0 0.00 0.00 0.00 37 1006.2
20260506010103 82 55 2.0 5.0 0.00 0.00 0.00 37 1006.2
20260506010003 82 55 2.0 5.0 0.00 0.00 0.00 37 1006.2
20260506005903 82 56 2.0 4.0 0.00 0.00 0.00 37 1006.2
20260506005803 82 56 1.0 4.0 0.00 0.00 0.00 38 1006.2
20260506005703 82 56 1.0 3.0 0.00 0.00 0.00 38 1006.2
20260506005603 82 56 2.0 3.0 0.00 0.00 0.00 38 1006.2
20260506005524 82 56 2.0 3.0 0.00 0.00 0.00 38 1006.2
20260506005424 82 55 2.0 3.0 0.00 0.00 0.00 39 1006.2
20260506005305 82 55 2.0 4.0 0.00 0.00 0.00 38 1006.2
20260506005203 82 55 2.0 4.0 0.00 0.00 0.00 39 1006.2
20260506005124 83 55 2.0 4.0 0.00 0.00 0.00 39 1006.2
20260506005003 83 55 2.0 4.0 0.00 0.00 0.00 39 1006.2
20260506004903 83 55 2.0 4.0 0.00 0.00 0.00 39 1006.2
20260506004803 83 55 2.0 4.0 0.00 0.00 0.00 39 1006.2
20260506004703 83 55 1.0 4.0 0.00 0.00 0.00 39 1006.2
20260506004604 83 55 1.0 4.0 0.00 0.00 0.00 39 1006.2
20260506004504 83 55 1.0 4.0 0.00 0.00 0.00 39 1006.2
20260506004403 83 55 1.0 4.0 0.00 0.00 0.00 40 1006.2
20260506004324 83 55 1.0 4.0 0.00 0.00 0.00 39 1006.2
20260506004224 83 55 1.0 4.0 0.00 0.00 0.00 40 1006.2
20260506004103 83 54 1.0 4.0 0.00 0.00 0.00 40 1006.2
20260506004003 83 54 1.0 4.0 0.00 0.00 0.00 40 1006.2
20260506003903 83 54 1.0 6.0 0.00 0.00 0.00 40 1006.1
20260506003803 83 54 1.0 6.0 0.00 0.00 0.00 40 1006.1
20260506003703 83 53 2.0 6.0 0.00 0.00 0.00 40 1006.1
20260506003603 83 53 2.0 6.0 0.00 0.00 0.00 40 1006.1
20260506003503 83 53 2.0 6.0 0.00 0.00 0.00 41 1006.1
20260506003403 83 53 2.0 6.0 0.00 0.00 0.00 41 1006.1
20260506003303 83 53 2.0 6.0 0.00 0.00 0.00 41 1006.1
20260506003203 83 53 2.0 6.0 0.00 0.00 0.00 41 1006.1
20260506003103 83 53 3.0 6.0 0.00 0.00 0.00 41 1006.1
20260506003003 83 53 3.0 6.0 0.00 0.00 0.00 42 1006.1
20260506002903 83 53 2.0 6.0 0.00 0.00 0.00 42 1006.1
20260506002803 83 53 2.0 6.0 0.00 0.00 0.00 42 1006.1
20260506002724 83 52 2.0 6.0 0.00 0.00 0.00 42 1006.1
20260506002603 83 51 2.0 4.0 0.00 0.00 0.00 42 1006.1
20260506002503 83 49 2.0 4.0 0.00 0.00 0.00 42 1006.2
20260506002424 83 47 2.0 6.0 0.00 0.00 0.00 42 1006.2
20260506002305 83 45 2.0 6.0 0.00 0.00 0.00 42 1006.1
20260506002203 83 43 2.0 6.0 0.00 0.00 0.00 42 1006.2
20260506002103 83 42 2.0 6.0 0.00 0.00 0.00 42 1006.2
20260506002003 83 41 2.0 6.0 0.00 0.00 0.00 42 1006.1
20260506001903 83 41 2.0 6.0 0.00 0.00 0.00 43 1006.1
20260506001803 83 40 2.0 6.0 0.00 0.00 0.00 43 1006.1
20260506001724 83 41 3.0 6.0 0.00 0.00 0.00 43 1006.1
20260506001624 83 42 3.0 6.0 0.00 0.00 0.00 43 1006.0
20260506001503 83 42 3.0 6.0 0.00 0.00 0.00 43 1006.0
20260506001403 83 42 3.0 8.0 0.00 0.00 0.00 43 1006.0
20260506001303 83 41 3.0 8.0 0.00 0.00 0.00 43 1006.0
20260506001203 83 42 3.0 8.0 0.00 0.00 0.00 43 1006.0
20260506001103 83 43 3.0 8.0 0.00 0.00 0.00 44 1006.0
20260506001003 83 43 4.0 10.0 0.00 0.00 0.00 43 1006.0
20260506000903 83 43 4.0 10.0 0.00 0.00 0.00 44 1005.9
20260506000803 83 44 4.0 10.0 0.00 0.00 0.00 44 1006.0
20260506000724 83 45 4.0 10.0 0.00 0.00 0.00 44 1006.0
20260506000624 83 44 4.0 10.0 0.00 0.00 0.00 44 1006.0
20260506000503 83 44 4.0 10.0 0.00 0.00 0.00 45 1006.0
20260506000424 83 46 4.0 10.0 0.00 0.00 0.00 45 1005.9
20260506000324 83 48 4.0 10.0 0.00 0.00 0.00 45 1005.9
20260506000205 83 43 4.0 10.0 0.00 0.00 0.00 45 1005.9
20260506000003 83 35 5.0 11.0 0.00 0.00 0.00 44 1005.8
20260505235903 83 33 5.0 11.0 0.00 0.00 0.00 45 1005.9
20260505235803 83 28 5.0 11.0 0.00 0.00 0.00 45 1005.9
20260505235703 83 21 4.0 11.0 0.00 0.00 0.00 45 1005.9
20260505235603 83 13 4.0 11.0 0.00 0.00 0.00 45 1005.9
20260505235503 83 11 4.0 11.0 0.00 0.00 0.00 45 1005.9
20260505235403 83 9 5.0 11.0 0.00 0.00 0.00 45 1005.8
20260505235305 83 11 4.0 11.0 0.00 0.00 0.00 45 1005.8
20260505235203 83 12 4.0 11.0 0.00 0.00 0.00 45 1005.7
20260505235103 83 9 4.0 10.0 0.00 0.00 0.00 45 1005.7
20260505235003 83 6 4.0 10.0 0.00 0.00 0.00 45 1005.7
20260505234924 83 7 4.0 10.0 0.00 0.00 0.00 45 1005.7
20260505234803 83 16 4.0 10.0 0.00 0.00 0.00 45 1005.7
20260505234724 83 21 4.0 10.0 0.00 0.00 0.00 46 1005.7
20260505234603 83 27 4.0 10.0 0.00 0.00 0.00 45 1005.7
20260505234503 83 22 4.0 14.0 0.00 0.00 0.00 45 1005.7
20260505234403 84 17 4.0 14.0 0.00 0.00 0.00 45 1005.7
20260505234303 84 16 4.0 14.0 0.00 0.00 0.00 45 1005.7
20260505234203 84 19 4.0 14.0 0.00 0.00 0.00 46 1005.7
20260505234103 84 25 4.0 14.0 0.00 0.00 0.00 46 1005.7
20260505234003 84 32 4.0 14.0 0.00 0.00 0.00 46 1005.7
20260505233903 84 30 4.0 14.0 0.00 0.00 0.00 46 1005.6
20260505233803 84 27 4.0 14.0 0.00 0.00 0.00 46 1005.6
20260505233703 84 30 4.0 14.0 0.00 0.00 0.00 46 1005.6
20260505233603 84 30 4.0 14.0 0.00 0.00 0.00 45 1005.6
20260505233503 84 36 4.0 13.0 0.00 0.00 0.00 45 1005.6
20260505233424 84 41 5.0 12.0 0.00 0.00 0.00 45 1005.6
20260505233303 84 31 5.0 12.0 0.00 0.00 0.00 46 1005.6
20260505233225 84 30 5.0 12.0 0.00 0.00 0.00 46 1005.6
20260505233103 84 28 6.0 12.0 0.00 0.00 0.00 46 1005.6
20260505233024 84 26 5.0 12.0 0.00 0.00 0.00 46 1005.7
20260505232924 84 24 5.0 12.0 0.00 0.00 0.00 46 1005.7
20260505232803 84 17 5.0 12.0 0.00 0.00 0.00 46 1005.6
20260505232703 84 10 5.0 12.0 0.00 0.00 0.00 46 1005.7
20260505232603 84 4 4.0 12.0 0.00 0.00 0.00 46 1005.7
20260505232503 84 349 4.0 12.0 0.00 0.00 0.00 46 1005.7
20260505232403 84 346 4.0 10.0 0.00 0.00 0.00 46 1005.7
20260505232305 84 356 4.0 10.0 0.00 0.00 0.00 46 1005.7
20260505232203 84 351 4.0 10.0 0.00 0.00 0.00 46 1005.6
20260505232103 84 339 4.0 10.0 0.00 0.00 0.00 46 1005.6
20260505232003 84 338 4.0 10.0 0.00 0.00 0.00 46 1005.7
20260505231903 84 340 4.0 12.0 0.00 0.00 0.00 46 1005.7
20260505231803 84 347 5.0 12.0 0.00 0.00 0.00 46 1005.7
20260505231703 84 355 5.0 12.0 0.00 0.00 0.00 46 1005.7
20260505231603 84 358 5.0 12.0 0.00 0.00 0.00 46 1005.7
20260505231503 84 1 5.0 12.0 0.00 0.00 0.00 46 1005.7
20260505231403 84 357 5.0 12.0 0.00 0.00 0.00 46 1005.7
20260505231303 84 351 5.0 12.0 0.00 0.00 0.00 47 1005.7
20260505231203 84 346 5.0 12.0 0.00 0.00 0.00 47 1005.7
20260505231103 84 352 5.0 12.0 0.00 0.00 0.00 47 1005.7
20260505231003 84 349 4.0 12.0 0.00 0.00 0.00 47 1005.7
20260505230903 84 344 4.0 10.0 0.00 0.00 0.00 47 1005.7
20260505230803 84 338 4.0 10.0 0.00 0.00 0.00 47 1005.7
20260505230703 84 336 4.0 10.0 0.00 0.00 0.00 47 1005.7
20260505230603 84 337 4.0 10.0 0.00 0.00 0.00 47 1005.6
20260505230503 84 335 4.0 9.0 0.00 0.00 0.00 47 1005.6
20260505230403 84 333 4.0 9.0 0.00 0.00 0.00 47 1005.6
20260505230303 84 335 4.0 9.0 0.00 0.00 0.00 47 1005.6
20260505230203 84 338 4.0 9.0 0.00 0.00 0.00 47 1005.6
20260505230003 84 343 5.0 11.0 0.00 0.00 0.00 47 1005.6
20260505225924 84 345 6.0 11.0 0.00 0.00 0.00 47 1005.5
20260505225803 84 358 6.0 16.0 0.00 0.00 0.00 47 1005.6
20260505225703 84 1 6.0 16.0 0.00 0.00 0.00 48 1005.5
20260505225603 84 3 6.0 16.0 0.00 0.00 0.00 48 1005.5
20260505225504 84 6 6.0 16.0 0.00 0.00 0.00 48 1005.6
20260505225403 84 11 6.0 16.0 0.00 0.00 0.00 48 1005.5
20260505225305 84 13 6.0 16.0 0.00 0.00 0.00 48 1005.6
20260505225203 84 12 7.0 16.0 0.00 0.00 0.00 49 1005.5
20260505225103 84 14 7.0 16.0 0.00 0.00 0.00 49 1005.6
20260505225003 84 15 7.0 16.0 0.00 0.00 0.00 49 1005.6
20260505224903 84 19 6.0 13.0 0.00 0.00 0.00 48 1005.6
20260505224824 84 17 6.0 13.0 0.00 0.00 0.00 48 1005.6
20260505224703 84 18 6.0 13.0 0.00 0.00 0.00 48 1005.5
20260505224603 84 17 6.0 13.0 0.00 0.00 0.00 48 1005.5
20260505224503 84 20 6.0 12.0 0.00 0.00 0.00 48 1005.5
20260505224403 84 21 6.0 12.0 0.00 0.00 0.00 48 1005.5
20260505224303 84 22 6.0 12.0 0.00 0.00 0.00 48 1005.5
20260505224203 84 24 6.0 12.0 0.00 0.00 0.00 48 1005.4
20260505224103 84 23 6.0 12.0 0.00 0.00 0.00 48 1005.4
20260505224003 84 21 5.0 12.0 0.00 0.00 0.00 48 1005.5
20260505223904 84 18 6.0 12.0 0.00 0.00 0.00 48 1005.5
20260505223803 84 14 6.0 14.0 0.00 0.00 0.00 48 1005.6
20260505223703 84 9 6.0 15.0 0.00 0.00 0.00 48 1005.5
20260505223603 84 9 6.0 15.0 0.00 0.00 0.00 48 1005.5
20260505223503 84 11 6.0 15.0 0.00 0.00 0.00 48 1005.6
20260505223403 84 14 6.0 15.0 0.00 0.00 0.00 48 1005.5
20260505223303 84 9 5.0 15.0 0.00 0.00 0.00 47 1005.6
20260505223203 84 8 6.0 15.0 0.00 0.00 0.00 47 1005.5
20260505223124 84 12 6.0 15.0 0.00 0.00 0.00 47 1005.5
20260505223003 84 9 6.0 15.0 0.00 0.00 0.00 47 1005.5
20260505222903 84 14 6.0 15.0 0.00 0.00 0.00 47 1005.5
20260505222824 84 17 6.0 15.0 0.00 0.00 0.00 47 1005.5
20260505222703 84 25 6.0 13.0 0.00 0.00 0.00 47 1005.5
20260505222604 84 27 6.0 13.0 0.00 0.00 0.00 47 1005.5
20260505222503 84 26 6.0 13.0 0.00 0.00 0.00 47 1005.5
20260505222424 84 25 6.0 13.0 0.00 0.00 0.00 47 1005.6
20260505222305 84 28 6.0 13.0 0.00 0.00 0.00 47 1005.6
20260505222203 84 27 6.0 11.0 0.00 0.00 0.00 47 1005.6
20260505222103 84 24 6.0 11.0 0.00 0.00 0.00 47 1005.6
20260505222003 84 24 6.0 11.0 0.00 0.00 0.00 47 1005.6
20260505221903 84 22 6.0 11.0 0.00 0.00 0.00 47 1005.7
20260505221803 84 17 5.0 11.0 0.00 0.00 0.00 46 1005.7
20260505221703 84 11 5.0 11.0 0.00 0.00 0.00 46 1005.7
20260505221604 84 5 5.0 11.0 0.00 0.00 0.00 46 1005.7
20260505221503 84 360 4.0 11.0 0.00 0.00 0.00 46 1005.7
20260505221403 84 2 4.0 11.0 0.00 0.00 0.00 47 1005.8
20260505221303 84 2 4.0 11.0 0.00 0.00 0.00 47 1005.7
20260505221203 84 5 4.0 11.0 0.00 0.00 0.00 46 1005.7
20260505221103 84 8 4.0 11.0 0.00 0.00 0.00 46 1005.7
20260505221024 84 14 4.0 11.0 0.00 0.00 0.00 46 1005.8
20260505220925 84 11 5.0 11.0 0.00 0.00 0.00 46 1005.8
20260505220803 84 15 5.0 11.0 0.00 0.00 0.00 46 1005.7
20260505220703 84 16 5.0 11.0 0.00 0.00 0.00 46 1005.8
20260505220603 84 19 5.0 11.0 0.00 0.00 0.00 46 1005.8
20260505220503 84 25 5.0 11.0 0.00 0.00 0.00 46 1005.8
20260505220403 84 25 6.0 11.0 0.00 0.00 0.00 46 1005.8
20260505220303 84 26 6.0 15.0 0.00 0.00 0.00 46 1005.8
20260505220225 84 26 6.0 15.0 0.00 0.00 0.00 46 1005.8
20260505220103 84 29 7.0 15.0 0.00 0.00 0.00 47 1005.8
20260505220004 84 30 7.0 15.0 0.00 0.00 0.00 47 1005.8
20260505215903 84 32 6.0 15.0 0.00 0.00 0.00 47 1005.8
20260505215803 84 33 6.0 15.0 0.00 0.00 0.00 46 1005.9
20260505215703 84 37 6.0 15.0 0.00 0.00 0.00 46 1005.9
20260505215604 84 39 6.0 15.0 0.00 0.00 0.00 46 1005.9
20260505215503 84 36 6.0 15.0 0.00 0.00 0.00 47 1005.9
20260505215424 84 36 6.0 15.0 0.00 0.00 0.00 47 1005.9
20260505215305 84 37 6.0 15.0 0.00 0.00 0.00 46 1006.0
20260505215203 84 34 5.0 11.0 0.00 0.00 0.00 46 1006.0
20260505215103 84 31 6.0 12.0 0.00 0.00 0.00 46 1006.0
20260505215003 84 25 5.0 12.0 0.00 0.00 0.00 45 1006.1
20260505214903 84 19 5.0 12.0 0.00 0.00 0.00 45 1006.1
20260505214803 84 19 6.0 12.0 0.00 0.00 0.00 46 1006.1
20260505214703 84 9 6.0 12.0 0.00 0.00 0.00 45 1006.1
20260505214603 84 7 5.0 12.0 0.00 0.00 0.00 45 1006.1
20260505214503 84 11 5.0 12.0 0.00 0.00 0.00 45 1006.1
20260505214403 84 10 5.0 12.0 0.00 0.00 0.00 45 1006.1
20260505214304 84 3 6.0 12.0 0.00 0.00 0.00 45 1006.1
20260505214203 84 8 6.0 12.0 0.00 0.00 0.00 45 1006.1
20260505214103 84 10 6.0 11.0 0.00 0.00 0.00 45 1006.0
20260505214003 84 19 6.0 11.0 0.00 0.00 0.00 45 1006.0
20260505213924 84 20 6.0 11.0 0.00 0.00 0.00 45 1006.0
20260505213825 84 28 6.0 11.0 0.00 0.00 0.00 45 1006.0
20260505213704 84 33 5.0 11.0 0.00 0.00 0.00 44 1006.1
20260505213604 84 30 5.0 11.0 0.00 0.00 0.00 45 1006.1
20260505213503 84 29 5.0 11.0 0.00 0.00 0.00 45 1006.1
20260505213424 84 29 5.0 11.0 0.00 0.00 0.00 45 1006.2
20260505213303 84 38 5.0 11.0 0.00 0.00 0.00 44 1006.2
20260505213224 84 38 5.0 11.0 0.00 0.00 0.00 44 1006.2
20260505213124 84 39 5.0 11.0 0.00 0.00 0.00 44 1006.3
20260505213024 84 39 5.0 9.0 0.00 0.00 0.00 44 1006.3
20260505212904 84 42 5.0 12.0 0.00 0.00 0.00 44 1006.4
20260505212803 84 41 5.0 12.0 0.00 0.00 0.00 43 1006.4
20260505212704 84 41 5.0 12.0 0.00 0.00 0.00 43 1006.4
20260505212603 84 45 6.0 12.0 0.00 0.00 0.00 43 1006.4
20260505212524 83 45 5.0 12.0 0.00 0.00 0.00 43 1006.4
20260505212403 83 44 6.0 12.0 0.00 0.00 0.00 43 1006.4
20260505212305 83 43 5.0 12.0 0.00 0.00 0.00 44 1006.4
20260505212204 83 41 5.0 12.0 0.00 0.00 0.00 44 1006.4
20260505212103 83 40 6.0 12.0 0.00 0.00 0.00 44 1006.3
20260505212004 83 35 6.0 12.0 0.00 0.00 0.00 44 1006.4
20260505211903 84 29 6.0 11.0 0.00 0.00 0.00 44 1006.4
20260505211803 83 31 6.0 11.0 0.00 0.00 0.00 44 1006.4
20260505211725 84 31 6.0 11.0 0.00 0.00 0.00 44 1006.4
20260505211603 84 28 6.0 11.0 0.00 0.00 0.00 43 1006.3
20260505211503 84 30 6.0 11.0 0.00 0.00 0.00 43 1006.3
20260505211403 84 29 6.0 11.0 0.00 0.00 0.00 43 1006.3
20260505211324 83 30 6.0 12.0 0.00 0.00 0.00 43 1006.3
20260505211203 83 32 6.0 12.0 0.00 0.00 0.00 44 1006.4
20260505211103 83 31 6.0 12.0 0.00 0.00 0.00 44 1006.4
20260505211003 83 33 6.0 12.0 0.00 0.00 0.00 44 1006.4
20260505210903 83 37 6.0 12.0 0.00 0.00 0.00 44 1006.4
20260505210824 83 36 6.0 12.0 0.00 0.00 0.00 44 1006.5
20260505210703 83 33 7.0 12.0 0.00 0.00 0.00 45 1006.6
20260505210603 83 33 6.0 12.0 0.00 0.00 0.00 45 1006.6
20260505210524 83 31 6.0 12.0 0.00 0.00 0.00 45 1006.6
20260505210403 83 28 6.0 12.0 0.00 0.00 0.00 45 1006.6
20260505210303 84 24 6.0 12.0 0.00 0.00 0.00 45 1006.6
20260505210203 84 25 6.0 12.0 0.00 0.00 0.00 45 1006.6
20260505210103 84 27 6.0 12.0 0.00 0.00 0.00 45 1006.7
20260505210024 84 29 6.0 12.0 0.00 0.00 0.00 45 1006.7
20260505205903 84 27 6.0 12.0 0.00 0.00 0.00 45 1006.6
20260505205803 84 24 6.0 12.0 0.00 0.00 0.00 45 1006.7
20260505205704 84 22 6.0 12.0 0.00 0.00 0.00 45 1006.6
20260505205624 84 23 6.0 12.0 0.00 0.00 0.00 45 1006.7
20260505205503 84 29 7.0 13.0 0.00 0.00 0.00 45 1006.7
20260505205424 84 30 7.0 13.0 0.00 0.00 0.00 45 1006.6
20260505205305 84 34 6.0 13.0 0.00 0.00 0.00 45 1006.6
20260505205203 84 34 6.0 13.0 0.00 0.00 0.00 45 1006.6
20260505205103 84 34 6.0 13.0 0.00 0.00 0.00 44 1006.6
20260505205003 84 31 7.0 13.0 0.00 0.00 0.00 44 1006.7
20260505204904 84 33 7.0 14.0 0.00 0.00 0.00 44 1006.7
20260505204824 84 36 7.0 14.0 0.00 0.00 0.00 43 1006.7
20260505204703 84 40 7.0 14.0 0.00 0.00 0.00 42 1006.6
20260505204603 84 39 7.0 14.0 0.00 0.00 0.00 42 1006.7
20260505204504 84 39 7.0 14.0 0.00 0.00 0.00 42 1006.7
20260505204403 83 38 8.0 14.0 0.00 0.00 0.00 41 1006.7
20260505204303 83 36 8.0 14.0 0.00 0.00 0.00 42 1006.7
20260505204203 83 35 7.0 14.0 0.00 0.00 0.00 43 1006.7
20260505204103 83 36 7.0 14.0 0.00 0.00 0.00 43 1006.8
20260505204024 83 38 7.0 14.0 0.00 0.00 0.00 43 1006.8
20260505203903 83 40 7.0 14.0 0.00 0.00 0.00 42 1006.8
20260505203824 83 38 8.0 17.0 0.00 0.00 0.00 42 1006.8
20260505203703 83 37 8.0 17.0 0.00 0.00 0.00 42 1006.9
20260505203603 83 37 8.0 17.0 0.00 0.00 0.00 42 1006.9
20260505203503 83 37 8.0 17.0 0.00 0.00 0.00 42 1007.0
20260505203403 83 38 8.0 17.0 0.00 0.00 0.00 41 1007.0
20260505203303 83 38 8.0 17.0 0.00 0.00 0.00 41 1007.0
20260505203203 83 38 9.0 17.0 0.00 0.00 0.00 42 1007.0
20260505203124 83 38 9.0 17.0 0.00 0.00 0.00 42 1007.0
20260505203024 83 37 9.0 17.0 0.00 0.00 0.00 42 1007.0
20260505202903 83 38 9.0 17.0 0.00 0.00 0.00 42 1007.0
20260505202824 83 37 9.0 15.0 0.00 0.00 0.00 42 1007.0
20260505202724 83 39 8.0 15.0 0.00 0.00 0.00 41 1007.0
20260505202624 83 39 8.0 15.0 0.00 0.00 0.00 40 1007.0
20260505202503 83 38 8.0 15.0 0.00 0.00 0.00 40 1007.1
20260505202424 83 38 8.0 15.0 0.00 0.00 0.00 41 1007.0
20260505202306 83 39 8.0 13.0 0.00 0.00 0.00 40 1007.1
20260505202203 83 39 8.0 13.0 0.00 0.00 0.00 41 1007.2
20260505202103 83 39 8.0 13.0 0.00 0.00 0.00 40 1007.1
20260505202003 83 39 8.0 13.0 0.00 0.00 0.00 40 1007.2
20260505201903 83 38 8.0 13.0 0.00 0.00 0.00 40 1007.2
20260505201803 83 40 7.0 14.0 0.00 0.00 0.00 38 1007.2
20260505201703 83 40 7.0 14.0 0.00 0.00 0.00 38 1007.2
20260505201604 82 41 7.0 14.0 0.00 0.00 0.00 37 1007.3
20260505201504 82 41 7.0 14.0 0.00 0.00 0.00 38 1007.3
20260505201403 82 40 8.0 14.0 0.00 0.00 0.00 37 1007.3
20260505201303 82 38 7.0 14.0 0.00 0.00 0.00 37 1007.3
20260505201224 82 38 8.0 14.0 0.00 0.00 0.00 36 1007.4
20260505201103 82 36 7.0 14.0 0.00 0.00 0.00 36 1007.4
20260505201003 82 35 8.0 14.0 0.00 0.00 0.00 37 1007.4
20260505200924 82 35 7.0 14.0 0.00 0.00 0.00 37 1007.5
20260505200803 82 34 7.0 14.0 0.00 0.00 0.00 36 1007.5
20260505200703 82 34 7.0 14.0 0.00 0.00 0.00 36 1007.5
20260505200603 82 34 8.0 14.0 0.00 0.00 0.00 36 1007.5
20260505200503 82 35 8.0 14.0 0.00 0.00 0.00 36 1007.4
20260505200403 82 37 8.0 13.0 0.00 0.00 0.00 36 1007.5
20260505200303 82 37 8.0 13.0 0.00 0.00 0.00 35 1007.4
20260505200224 82 37 7.0 13.0 0.00 0.00 0.00 33 1007.4
20260505200103 82 37 7.0 13.0 0.00 0.00 0.00 33 1007.4
20260505200024 81 37 7.0 13.0 0.00 0.00 0.00 33 1007.4
20260505195924 81 40 7.0 13.0 0.00 0.00 0.00 33 1007.5
20260505195803 81 41 7.0 13.0 0.00 0.00 0.00 34 1007.6
20260505195703 81 41 7.0 13.0 0.00 0.00 0.00 35 1007.6
20260505195603 81 42 6.0 13.0 0.00 0.00 0.00 34 1007.7
20260505195503 81 40 6.0 13.0 0.00 0.00 0.00 34 1007.7
20260505195403 81 40 6.0 12.0 0.00 0.00 0.00 33 1007.6
20260505195305 81 41 6.0 12.0 0.00 0.00 0.00 31 1007.7
20260505195203 81 44 6.0 11.0 0.00 0.00 0.00 31 1007.7
20260505195104 81 42 6.0 11.0 0.00 0.00 0.00 32 1007.7
20260505195003 81 41 7.0 12.0 0.00 0.00 0.00 31 1007.6
20260505194903 81 38 7.0 16.0 0.00 0.00 0.00 33 1007.7
20260505194803 81 36 7.0 16.0 0.00 0.00 0.00 33 1007.6
20260505194703 81 34 8.0 16.0 0.00 0.00 0.00 33 1007.7
20260505194603 81 32 8.0 16.0 0.00 0.00 0.00 33 1007.7
20260505194503 81 33 8.0 16.0 0.00 0.00 0.00 32 1007.8
20260505194403 81 33 8.0 16.0 0.00 0.00 0.00 32 1007.7
20260505194303 81 33 7.0 16.0 0.00 0.00 0.00 31 1007.8
20260505194203 81 32 7.0 16.0 0.00 0.00 0.00 32 1007.8
20260505194104 81 35 7.0 16.0 0.00 0.00 0.00 33 1007.8
20260505194003 81 32 7.0 16.0 0.00 0.00 0.00 33 1007.8
20260505193903 81 31 7.0 15.0 0.00 0.00 0.00 33 1007.9
20260505193804 81 32 7.0 13.0 0.00 0.00 0.00 32 1007.8
20260505193724 81 34 7.0 13.0 0.00 0.00 0.00 31 1007.9
20260505193603 81 37 7.0 13.0 0.00 0.00 0.00 30 1007.8
20260505193503 81 36 7.0 13.0 0.00 0.00 0.00 30 1007.9
20260505193403 81 37 7.0 13.0 0.00 0.00 0.00 30 1007.9
20260505193303 81 37 7.0 13.0 0.00 0.00 0.00 31 1007.9
20260505193224 81 37 6.0 13.0 0.00 0.00 0.00 32 1007.9
20260505193124 81 37 6.0 13.0 0.00 0.00 0.00 32 1007.9
20260505193024 81 38 6.0 13.0 0.00 0.00 0.00 31 1007.8
20260505192924 81 41 6.0 12.0 0.00 0.00 0.00 31 1008.0
20260505192803 81 43 6.0 12.0 0.00 0.00 0.00 30 1007.9
20260505192703 81 41 6.0 14.0 0.00 0.00 0.00 30 1008.0
20260505192603 81 42 6.0 14.0 0.00 0.00 0.00 30 1007.9
20260505192503 81 43 6.0 14.0 0.00 0.00 0.00 30 1008.0
20260505192403 81 42 7.0 16.0 0.00 0.00 0.00 31 1008.0
20260505192305 81 42 7.0 16.0 0.00 0.00 0.00 30 1008.0
20260505192203 81 43 8.0 16.0 0.00 0.00 0.00 30 1008.0
20260505192103 81 43 8.0 16.0 0.00 0.00 0.00 30 1008.0
20260505192003 81 42 8.0 16.0 0.00 0.00 0.00 30 1008.1
20260505191903 81 41 8.0 16.0 0.00 0.00 0.00 31 1008.0
20260505191803 81 42 8.0 16.0 0.00 0.00 0.00 31 1008.0
20260505191703 81 41 8.0 16.0 0.00 0.00 0.00 28 1008.0
20260505191603 81 40 9.0 16.0 0.00 0.00 0.00 30 1008.0
20260505191503 81 40 8.0 16.0 0.00 0.00 0.00 30 1007.9
20260505191403 81 38 8.0 16.0 0.00 0.00 0.00 29 1008.0
20260505191303 81 37 8.0 16.0 0.00 0.00 0.00 30 1008.0
20260505191203 81 35 8.0 13.0 0.00 0.00 0.00 27 1008.0
20260505191124 81 33 8.0 13.0 0.00 0.00 0.00 27 1008.0
20260505191003 81 32 8.0 13.0 0.00 0.00 0.00 28 1008.0
20260505190903 81 32 8.0 13.0 0.00 0.00 0.00 29 1008.0
20260505190803 81 29 7.0 13.0 0.00 0.00 0.00 28 1008.0
20260505190703 80 29 7.0 14.0 0.00 0.00 0.00 27 1008.0
20260505190603 80 29 7.0 14.0 0.00 0.00 0.00 25 1008.1
20260505190503 80 28 7.0 14.0 0.00 0.00 0.00 25 1008.0
20260505190403 80 29 7.0 14.0 0.00 0.00 0.00 25 1008.0
20260505190324 80 30 7.0 14.0 0.00 0.00 0.00 26 1008.0
20260505190204 80 28 7.0 14.0 0.00 0.00 0.00 25 1008.0
20260505190103 80 30 7.0 14.0 0.00 0.00 0.00 25 1008.0
20260505190024 80 32 7.0 14.0 0.00 0.00 0.00 23 1008.0
20260505185903 80 33 7.0 14.0 0.00 0.00 0.00 23 1008.0
20260505185803 80 35 7.0 14.0 0.00 0.00 0.00 22 1008.0
20260505185703 80 34 7.0 14.0 0.00 0.00 0.00 21 1008.0
20260505185603 80 34 6.0 14.0 0.00 0.00 0.00 21 1008.1
20260505185503 80 34 6.0 11.0 0.00 0.00 0.00 19 1008.1
20260505185403 80 35 6.0 12.0 0.00 0.00 0.00 18 1008.1
20260505185324 80 34 7.0 12.0 0.00 0.00 0.00 18 1008.1
20260505185203 80 36 7.0 12.0 0.00 0.00 0.00 17 1008.1
20260505185124 80 35 7.0 12.0 0.00 0.00 0.00 17 1008.1
20260505185003 79 33 7.0 12.0 0.00 0.00 0.00 17 1008.1
20260505184903 79 32 7.0 12.0 0.00 0.00 0.00 18 1008.2
20260505184803 79 33 7.0 12.0 0.00 0.00 0.00 18 1008.2
20260505184703 79 36 7.0 12.0 0.00 0.00 0.00 18 1008.2
20260505184603 79 38 7.0 12.0 0.00 0.00 0.00 18 1008.2
20260505184503 79 40 7.0 12.0 0.00 0.00 0.00 18 1008.2
20260505184403 79 40 7.0 15.0 0.00 0.00 0.00 17 1008.3
20260505184303 79 43 7.0 15.0 0.00 0.00 0.00 16 1008.3
20260505184203 79 46 8.0 15.0 0.00 0.00 0.00 18 1008.2
20260505184124 79 46 7.0 15.0 0.00 0.00 0.00 18 1008.2
20260505184003 79 50 7.0 15.0 0.00 0.00 0.00 18 1008.3
20260505183903 79 52 7.0 15.0 0.00 0.00 0.00 17 1008.3
20260505183803 79 52 8.0 15.0 0.00 0.00 0.00 18 1008.3
20260505183703 79 51 8.0 16.0 0.00 0.00 0.00 18 1008.3
20260505183603 79 51 8.0 16.0 0.00 0.00 0.00 18 1008.3
20260505183503 79 51 8.0 16.0 0.00 0.00 0.00 19 1008.3
20260505183403 79 52 8.0 16.0 0.00 0.00 0.00 15 1008.4
20260505183303 79 52 8.0 16.0 0.00 0.00 0.00 17 1008.4
20260505183203 79 52 8.0 16.0 0.00 0.00 0.00 18 1008.4
20260505183103 79 53 9.0 16.0 0.00 0.00 0.00 18 1008.4
20260505183003 79 52 9.0 19.0 0.00 0.00 0.00 18 1008.4
20260505182903 79 53 9.0 19.0 0.00 0.00 0.00 18 1008.4
20260505182803 79 54 9.0 19.0 0.00 0.00 0.00 18 1008.4
20260505182703 79 53 9.0 19.0 0.00 0.00 0.00 16 1008.4
20260505182603 79 51 9.0 19.0 0.00 0.00 0.00 13 1008.4
20260505182503 79 49 9.0 19.0 0.00 0.00 0.00 13 1008.4
20260505182403 78 48 9.0 19.0 0.00 0.00 0.00 14 1008.4
20260505182306 78 48 9.0 19.0 0.00 0.00 0.00 14 1008.4
20260505182203 78 47 9.0 19.0 0.00 0.00 0.00 15 1008.4
20260505182103 78 43 9.0 19.0 0.00 0.00 0.00 14 1008.5
20260505182004 78 40 9.0 17.0 0.00 0.00 0.00 16 1008.5
20260505181903 79 38 9.0 17.0 0.00 0.00 0.00 15 1008.5
20260505181824 78 37 9.0 17.0 0.00 0.00 0.00 15 1008.5
20260505181703 78 37 8.0 16.0 0.00 0.00 0.00 13 1008.5
20260505181603 78 36 8.0 16.0 0.00 0.00 0.00 13 1008.5
20260505181503 78 38 8.0 16.0 0.00 0.00 0.00 10 1008.5
20260505181424 78 39 8.0 16.0 0.00 0.00 0.00 10 1008.5
20260505181303 78 39 9.0 16.0 0.00 0.00 0.00 11 1008.5
20260505181203 78 38 9.0 16.0 0.00 0.00 0.00 10 1008.6
20260505181124 78 38 9.0 16.0 0.00 0.00 0.00 11 1008.6
20260505181003 78 40 8.0 16.0 0.00 0.00 0.00 9 1008.6
20260505180903 78 40 8.0 16.0 0.00 0.00 0.00 8 1008.6
20260505180803 78 39 8.0 16.0 0.00 0.00 0.00 5 1008.5
20260505180703 78 39 8.0 16.0 0.00 0.00 0.00 5 1008.6
20260505180603 78 41 8.0 16.0 0.00 0.00 0.00 6 1008.6
20260505180503 78 41 8.0 16.0 0.00 0.00 0.00 6 1008.6
20260505180403 78 41 8.0 16.0 0.00 0.00 0.00 8 1008.6
20260505180303 78 40 8.0 16.0 0.00 0.00 0.00 6 1008.6
20260505180224 78 41 7.0 16.0 0.00 0.00 0.00 5 1008.6
20260505180103 78 41 7.0 16.0 0.00 0.00 0.00 5 1008.7
20260505180003 77 40 8.0 16.0 0.00 0.00 0.00 6 1008.7
20260505175903 78 38 8.0 16.0 0.00 0.00 0.00 7 1008.7
20260505175803 78 41 8.0 16.0 0.00 0.00 0.00 4 1008.7
20260505175703 77 42 8.0 16.0 0.00 0.00 0.00 3 1008.8
20260505175604 77 41 9.0 16.0 0.00 0.00 0.00 2 1008.7
20260505175524 77 41 9.0 16.0 0.00 0.00 0.00 2 1008.7
20260505175403 77 40 9.0 16.0 0.00 0.00 0.00 2 1008.8
20260505175305 77 39 9.0 16.0 0.00 0.00 0.00 2 1008.8
20260505175203 77 39 9.0 16.0 0.00 0.00 0.00 4 1008.7
20260505175103 77 39 9.0 16.0 0.00 0.00 0.00 4 1008.7
20260505175025 77 39 9.0 16.0 0.00 0.00 0.00 5 1008.8
20260505174903 77 38 9.0 16.0 0.00 0.00 0.00 5 1008.8
20260505174803 77 37 8.0 16.0 0.00 0.00 0.00 7 1008.8
20260505174724 77 36 8.0 16.0 0.00 0.00 0.00 6 1008.8
20260505174603 77 36 7.0 14.0 0.00 0.00 0.00 3 1008.8
20260505174524 77 35 8.0 14.0 0.00 0.00 0.00 3 1008.8
20260505174403 77 36 8.0 14.0 0.00 0.00 0.00 3 1008.8
20260505174303 77 36 8.0 16.0 0.00 0.00 0.00 4 1008.8
20260505174203 77 37 9.0 16.0 0.00 0.00 0.00 5 1008.8
20260505174103 77 37 8.0 16.0 0.00 0.00 0.00 3 1008.9
20260505174003 77 40 8.0 16.0 0.00 0.00 0.00 3 1008.9
20260505173903 77 39 8.0 16.0 0.00 0.00 0.00 2 1008.9
20260505173803 77 41 8.0 16.0 0.00 0.00 0.00 1 1008.9
20260505173703 77 42 9.0 16.0 0.00 0.00 0.00 2 1008.9
20260505173603 77 44 9.0 16.0 0.00 0.00 0.00 3 1009.0
20260505173503 77 46 9.0 16.0 0.00 0.00 0.00 4 1008.9
20260505173424 77 46 9.0 16.0 0.00 0.00 0.00 4 1008.9
20260505173324 77 47 9.0 15.0 0.00 0.00 0.00 2 1008.9
20260505173203 77 49 8.0 15.0 0.00 0.00 0.00 1 1008.9
20260505173103 77 51 8.0 15.0 0.00 0.00 0.00 1 1009.0
20260505173003 77 51 9.0 15.0 0.00 0.00 0.00 2 1009.0
20260505172903 77 51 9.0 15.0 0.00 0.00 0.00 3 1009.0
20260505172803 77 48 8.0 15.0 0.00 0.00 0.00 3 1009.0
20260505172703 77 47 8.0 14.0 0.00 0.00 0.00 4 1009.0
20260505172603 77 45 8.0 14.0 0.00 0.00 0.00 2 1009.0
20260505172524 77 45 8.0 14.0 0.00 0.00 0.00 2 1009.0
20260505172424 77 46 8.0 14.0 0.00 0.00 0.00 1 1009.0
20260505172305 77 43 8.0 15.0 0.00 0.00 0.00 1 1009.0
20260505172224 77 43 8.0 15.0 0.00 0.00 0.00 1 1008.9
20260505172103 77 41 8.0 15.0 0.00 0.00 0.00 1 1008.9
20260505172003 77 39 8.0 15.0 0.00 0.00 0.00 1 1008.9
20260505171903 77 39 8.0 15.0 0.00 0.00 0.00 1 1009.0
20260505171803 77 42 8.0 15.0 0.00 0.00 0.00 1 1008.9
20260505171703 77 44 7.0 15.0 0.00 0.00 0.00 1 1008.9
20260505171603 77 45 8.0 15.0 0.00 0.00 0.00 1 1009.0
20260505171503 77 43 8.0 15.0 0.00 0.00 0.00 1 1009.0
20260505171403 77 42 8.0 15.0 0.00 0.00 0.00 1 1009.0
20260505171304 77 45 8.0 14.0 0.00 0.00 0.00 1 1009.0
20260505171203 77 44 8.0 14.0 0.00 0.00 0.00 1 1009.1
20260505171103 77 44 8.0 14.0 0.00 0.00 0.00 1 1009.1
20260505171003 76 45 8.0 14.0 0.00 0.00 0.00 1 1009.1
20260505170903 76 47 8.0 14.0 0.00 0.00 0.00 1 1009.1
20260505170803 76 45 8.0 14.0 0.00 0.00 0.00 1 1009.1
20260505170703 76 45 8.0 14.0 0.00 0.00 0.00 1 1009.1
20260505170603 76 42 8.0 16.0 0.00 0.00 0.00 1 1009.1
20260505170503 76 41 8.0 16.0 0.00 0.00 0.00 1 1009.1
20260505170403 76 42 9.0 16.0 0.00 0.00 0.00 1 1009.1
20260505170303 76 41 8.0 16.0 0.00 0.00 0.00 1 1009.1
20260505170203 76 41 8.0 16.0 0.00 0.00 0.00 1 1009.1
20260505170103 76 42 8.0 16.0 0.00 0.00 0.00 1 1009.1
20260505170004 76 41 8.0 16.0 0.00 0.00 0.00 1 1009.1
20260505165903 76 41 8.0 16.0 0.00 0.00 0.00 1 1009.1
20260505165824 76 41 8.0 16.0 0.00 0.00 0.00 1 1009.1
20260505165703 76 39 8.0 16.0 0.00 0.00 0.00 1 1009.1
20260505165603 76 37 8.0 14.0 0.00 0.00 0.00 1 1009.1
20260505165503 76 39 8.0 14.0 0.00 0.00 0.00 1 1009.1
20260505165403 76 40 8.0 14.0 0.00 0.00 0.00 1 1009.1
20260505165306 76 39 8.0 14.0 0.00 0.00 0.00 1 1009.0
20260505165203 76 40 8.0 14.0 0.00 0.00 0.00 1 1009.0
20260505165124 76 39 8.0 14.0 0.00 0.00 0.00 1 1009.0
20260505165003 75 37 8.0 15.0 0.00 0.00 0.00 1 1009.1
20260505164924 75 36 8.0 17.0 0.00 0.00 0.00 1 1009.0
20260505164824 75 37 8.0 17.0 0.00 0.00 0.00 1 1009.0
20260505164703 75 36 8.0 17.0 0.00 0.00 0.00 1 1009.0
20260505164624 75 37 9.0 17.0 0.00 0.00 0.00 1 1009.0
20260505164503 75 38 9.0 17.0 0.00 0.00 0.00 1 1009.1
20260505164403 75 38 9.0 17.0 0.00 0.00 0.00 1 1009.1
20260505164303 75 38 9.0 17.0 0.00 0.00 0.00 1 1009.1
20260505164203 75 37 10.0 17.0 0.00 0.00 0.00 1 1009.1
20260505164103 75 37 9.0 17.0 0.00 0.00 0.00 1 1009.1
20260505164003 75 40 9.0 17.0 0.00 0.00 0.00 1 1009.1
20260505163925 75 42 9.0 16.0 0.00 0.00 0.00 1 1009.0
20260505163803 75 42 9.0 16.0 0.00 0.00 0.00 1 1009.0
20260505163703 75 44 9.0 16.0 0.00 0.00 0.00 1 1009.0
20260505163603 75 45 9.0 16.0 0.00 0.00 0.00 1 1009.0
20260505163524 75 44 9.0 15.0 0.00 0.00 0.00 1 1009.0
20260505163403 75 44 9.0 15.0 0.00 0.00 0.00 1 1009.0
20260505163303 75 43 8.0 15.0 0.00 0.00 0.00 1 1009.0
20260505163203 75 44 8.0 15.0 0.00 0.00 0.00 1 1008.9
20260505163103 75 45 8.0 15.0 0.00 0.00 0.00 1 1008.9
20260505163024 75 44 7.0 15.0 0.00 0.00 0.00 1 1008.9
20260505162903 74 44 8.0 15.0 0.00 0.00 0.00 1 1009.0
20260505162824 74 44 8.0 15.0 0.00 0.00 0.00 1 1009.0
20260505162703 74 42 8.0 17.0 0.00 0.00 0.00 1 1009.0
20260505162604 74 40 8.0 17.0 0.00 0.00 0.00 1 1008.9
20260505162503 74 41 8.0 17.0 0.00 0.00 0.00 1 1009.0
20260505162403 74 41 8.0 17.0 0.00 0.00 0.00 1 1009.0
20260505162306 74 43 9.0 17.0 0.00 0.00 0.00 1 1009.0
20260505162203 74 43 9.0 17.0 0.00 0.00 0.00 1 1009.0
20260505162124 74 42 9.0 17.0 0.00 0.00 0.00 1 1009.0
20260505162024 74 41 9.0 17.0 0.00 0.00 0.00 1 1009.0
20260505161924 74 41 9.0 17.0 0.00 0.00 0.00 1 1009.0
20260505161803 74 40 9.0 17.0 0.00 0.00 0.00 1 1009.0
20260505161724 74 41 9.0 14.0 0.00 0.00 0.00 1 1009.0
20260505161603 74 41 8.0 14.0 0.00 0.00 0.00 1 1009.0
20260505161503 74 41 8.0 14.0 0.00 0.00 0.00 1 1009.1
20260505161403 74 42 8.0 14.0 0.00 0.00 0.00 1 1009.0
20260505161303 74 42 8.0 18.0 0.00 0.00 0.00 1 1009.1
20260505161203 74 43 8.0 18.0 0.00 0.00 0.00 1 1009.1
20260505161103 74 44 8.0 18.0 0.00 0.00 0.00 1 1009.1
20260505161003 74 46 8.0 18.0 0.00 0.00 0.00 1 1009.1
20260505160903 74 45 8.0 18.0 0.00 0.00 0.00 1 1009.1
20260505160803 74 45 8.0 18.0 0.00 0.00 0.00 1 1009.1
20260505160703 74 45 8.0 18.0 0.00 0.00 0.00 1 1009.1
20260505160603 74 47 8.0 18.0 0.00 0.00 0.00 1 1009.1
20260505160503 74 48 8.0 18.0 0.00 0.00 0.00 1 1009.1
20260505160403 74 47 8.0 18.0 0.00 0.00 0.00 1 1009.1
20260505160303 74 48 8.0 15.0 0.00 0.00 0.00 1 1009.1
20260505160203 74 47 8.0 14.0 0.00 0.00 0.00 1 1009.1
20260505160124 74 46 8.0 14.0 0.00 0.00 0.00 1 1009.1
20260505153303 74 50 8.0 15.0 0.00 0.00 0.00 1 1009.2
20260505153224 74 50 8.0 15.0 0.00 0.00 0.00 1 1009.3
20260505153103 74 51 8.0 15.0 0.00 0.00 0.00 1 1009.2
20260505153003 74 53 8.0 15.0 0.00 0.00 0.00 1 1009.2
20260505152903 73 53 8.0 15.0 0.00 0.00 0.00 1 1009.2
20260505152803 73 53 8.0 15.0 0.00 0.00 0.00 1 1009.1
20260505152703 73 53 8.0 15.0 0.00 0.00 0.00 1 1009.1
20260505152604 73 53 8.0 15.0 0.00 0.00 0.00 1 1009.1
20260505152504 73 50 8.0 18.0 0.00 0.00 0.00 1 1009.1
20260505152403 73 50 9.0 18.0 0.00 0.00 0.00 1 1009.1
20260505152305 73 50 9.0 18.0 0.00 0.00 0.00 1 1009.0
20260505152203 73 48 9.0 20.0 0.00 0.00 0.00 1 1009.0
20260505152124 73 48 9.0 20.0 0.00 0.00 0.00 1 1009.0
20260505152003 73 47 9.0 20.0 0.00 0.00 0.00 1 1008.9
20260505151903 73 48 10.0 20.0 0.00 0.00 0.00 1 1009.0
20260505151803 73 47 10.0 20.0 0.00 0.00 0.00 1 1008.9
20260505151724 73 47 10.0 20.0 0.00 0.00 0.00 1 1008.9
20260505151603 73 49 9.0 20.0 0.00 0.00 0.00 1 1009.0
20260505151503 73 50 9.0 20.0 0.00 0.00 0.00 1 1008.9
20260505151403 73 48 9.0 20.0 0.00 0.00 0.00 1 1008.8
20260505151303 73 47 9.0 20.0 0.00 0.00 0.00 1 1008.9
20260505151203 73 50 9.0 17.0 0.00 0.00 0.00 1 1008.9
20260505151103 73 50 9.0 17.0 0.00 0.00 0.00 1 1008.9
20260505151003 73 50 9.0 17.0 0.00 0.00 0.00 1 1008.8
20260505150924 73 50 9.0 17.0 0.00 0.00 0.00 1 1008.8
20260505150803 73 49 9.0 17.0 0.00 0.00 0.00 1 1008.8
20260505150703 73 49 9.0 17.0 0.00 0.00 0.00 1 1008.8
20260505150603 73 47 9.0 17.0 0.00 0.00 0.00 1 1008.8
20260505150503 73 46 9.0 17.0 0.00 0.00 0.00 1 1008.8
20260505150403 73 47 9.0 17.0 0.00 0.00 0.00 1 1008.8
20260505150303 73 47 9.0 17.0 0.00 0.00 0.00 1 1008.8
20260505150224 73 46 9.0 15.0 0.00 0.00 0.00 1 1008.8
20260505140603 72 47 6.0 14.0 0.00 0.00 0.00 1 1008.6
20260505140503 72 47 6.0 14.0 0.00 0.00 0.00 1 1008.6
20260505140424 72 47 6.0 14.0 0.00 0.00 0.00 1 1008.6
20260505140303 72 45 6.0 14.0 0.00 0.00 0.00 1 1008.5
20260505140224 72 45 6.0 14.0 0.00 0.00 0.00 1 1008.5